Wetterdaten: Freitag, 16.06.2017
Datum Zeit Temp. Aussen Temp. o. S. +5cm Feuchte Auss BlattFeu 1 Luftdruck Regen Sonnenschein Regendauer Solar Windben Empfang
16.06.2017 00:00 17,7 C 15,6 C 13,9 C 78 % 0 lf 1014,3 hPa 0,0 l/m 0 min 0 min 0 W/m 0,0 km/h (0 Bft) 91,30 %
16.06.2017 00:02 17,6 C 16,1 C 13,9 C 78 % 0 lf 1014,3 hPa 0,0 l/m 0 min 0 min 0 W/m 6,3 km/h (2 Bft) 97,37 %
16.06.2017 00:04 17,6 C 16,1 C 13,9 C 78 % 0 lf 1014,3 hPa 0,0 l/m 0 min 0 min 0 W/m 6,3 km/h (2 Bft) 93,62 %
16.06.2017 00:06 17,5 C 16,1 C 13,9 C 79 % 0 lf 1014,3 hPa 0,0 l/m 0 min 0 min 0 W/m 6,3 km/h (2 Bft) 95,74 %
16.06.2017 00:10 17,4 C 16,1 C 13,9 C 79 % 0 lf 1014,3 hPa 0,0 l/m 0 min 0 min 0 W/m 4,2 km/h (1 Bft) 93,62 %
16.06.2017 00:12 17,4 C 16,1 C 13,9 C 79 % 0 lf 1014,3 hPa 0,0 l/m 0 min 0 min 0 W/m 6,3 km/h (2 Bft) 95,65 %
16.06.2017 00:14 17,4 C 16,1 C 14,4 C 79 % 0 lf 1014,2 hPa 0,0 l/m 0 min 0 min 0 W/m 6,3 km/h (2 Bft) 95,74 %
16.06.2017 00:16 17,3 C 16,1 C 14,4 C 79 % 0 lf 1014,3 hPa 0,0 l/m 0 min 0 min 0 W/m 6,3 km/h (2 Bft) 95,74 %
16.06.2017 00:18 17,3 C 16,1 C 13,9 C 80 % 0 lf 1014,2 hPa 0,0 l/m 0 min 0 min 0 W/m 8,4 km/h (2 Bft) 91,49 %
16.06.2017 00:20 17,2 C 16,1 C 13,9 C 80 % 0 lf 1014,3 hPa 0,0 l/m 0 min 0 min 0 W/m 8,4 km/h (2 Bft) 89,36 %
16.06.2017 00:22 17,2 C 16,1 C 14,4 C 80 % 0 lf 1014,3 hPa 0,0 l/m 0 min 0 min 0 W/m 8,4 km/h (2 Bft) 95,65 %
16.06.2017 00:24 17,2 C 16,1 C 14,4 C 80 % 0 lf 1014,4 hPa 0,0 l/m 0 min 0 min 0 W/m 6,3 km/h (2 Bft) 93,62 %
16.06.2017 00:26 17,1 C 16,1 C 14,4 C 80 % 0 lf 1014,4 hPa 0,0 l/m 0 min 0 min 0 W/m 6,3 km/h (2 Bft) 93,62 %
16.06.2017 00:28 17,1 C 16,7 C 14,4 C 80 % 0 lf 1014,5 hPa 0,0 l/m 0 min 0 min 0 W/m 8,4 km/h (2 Bft) 95,74 %
16.06.2017 00:30 17,1 C 16,7 C 14,4 C 80 % 0 lf 1014,5 hPa 0,0 l/m 0 min 0 min 0 W/m 10,5 km/h (2 Bft) 93,62 %
16.06.2017 00:32 17,1 C 16,7 C 14,4 C 80 % 0 lf 1014,5 hPa 0,0 l/m 0 min 0 min 0 W/m 12,6 km/h (3 Bft) 93,62 %
16.06.2017 00:34 17,0 C 16,7 C 15,0 C 80 % 0 lf 1014,6 hPa 0,0 l/m 0 min 0 min 0 W/m 12,6 km/h (3 Bft) 95,74 %
16.06.2017 00:36 17,0 C 16,7 C 15,0 C 80 % 0 lf 1014,6 hPa 0,0 l/m 0 min 0 min 0 W/m 12,6 km/h (3 Bft) 97,83 %
16.06.2017 00:38 17,0 C 16,7 C 15,0 C 81 % 0 lf 1014,5 hPa 0,0 l/m 0 min 0 min 0 W/m 12,6 km/h (3 Bft) 97,87 %
16.06.2017 00:40 16,9 C 16,7 C 15,0 C 81 % 0 lf 1014,5 hPa 0,0 l/m 0 min 0 min 0 W/m 12,6 km/h (3 Bft) 95,74 %
16.06.2017 00:42 16,9 C 16,7 C 15,0 C 81 % 0 lf 1014,5 hPa 0,0 l/m 0 min 0 min 0 W/m 8,4 km/h (2 Bft) 95,74 %
16.06.2017 00:44 16,9 C 16,7 C 15,0 C 81 % 0 lf 1014,6 hPa 0,0 l/m 0 min 0 min 0 W/m 8,4 km/h (2 Bft) 93,62 %
16.06.2017 00:46 16,9 C 16,7 C 15,0 C 81 % 0 lf 1014,6 hPa 0,0 l/m 0 min 0 min 0 W/m 14,6 km/h (3 Bft) 91,30 %
16.06.2017 00:48 16,9 C 17,2 C 15,0 C 81 % 0 lf 1014,6 hPa 0,0 l/m 0 min 0 min 0 W/m 16,7 km/h (3 Bft) 95,74 %
16.06.2017 00:50 16,9 C 17,2 C 15,0 C 81 % 0 lf 1014,6 hPa 0,0 l/m 0 min 0 min 0 W/m 16,7 km/h (3 Bft) 97,87 %
16.06.2017 00:52 16,9 C 17,2 C 15,0 C 81 % 0 lf 1014,6 hPa 0,0 l/m 0 min 0 min 0 W/m 12,6 km/h (3 Bft) 97,87 %
16.06.2017 00:54 17,0 C 17,2 C 15,6 C 81 % 0 lf 1014,6 hPa 0,0 l/m 0 min 0 min 0 W/m 20,9 km/h (4 Bft) 97,87 %
16.06.2017 00:56 17,1 C 17,2 C 15,6 C 82 % 0 lf 1014,7 hPa 0,0 l/m 0 min 0 min 0 W/m 23,0 km/h (4 Bft) 97,87 %
16.06.2017 00:58 17,1 C 17,2 C 15,6 C 82 % 0 lf 1014,7 hPa 0,0 l/m 0 min 0 min 0 W/m 14,6 km/h (3 Bft) 97,87 %
16.06.2017 01:00 17,1 C 17,2 C 15,6 C 82 % 0 lf 1014,7 hPa 0,0 l/m 0 min 0 min 0 W/m 16,7 km/h (3 Bft) 93,48 %
16.06.2017 01:02 17,1 C 17,2 C 15,6 C 82 % 0 lf 1014,7 hPa 0,0 l/m 0 min 0 min 0 W/m 16,7 km/h (3 Bft) 97,87 %
16.06.2017 01:04 17,2 C 17,2 C 15,0 C 82 % 0 lf 1014,7 hPa 0,0 l/m 0 min 0 min 0 W/m 20,9 km/h (4 Bft) 97,87 %
16.06.2017 01:06 17,2 C 17,2 C 15,0 C 82 % 0 lf 1014,7 hPa 0,0 l/m 0 min 0 min 0 W/m 16,7 km/h (3 Bft) 97,87 %
16.06.2017 01:08 17,2 C 17,2 C 15,0 C 81 % 0 lf 1014,7 hPa 0,0 l/m 0 min 0 min 0 W/m 16,7 km/h (3 Bft) 95,74 %
16.06.2017 01:10 17,2 C 17,2 C 15,0 C 81 % 0 lf 1014,7 hPa 0,0 l/m 0 min 0 min 0 W/m 16,7 km/h (3 Bft) 95,65 %
16.06.2017 01:12 17,2 C 17,2 C 15,0 C 81 % 0 lf 1014,8 hPa 0,0 l/m 0 min 0 min 0 W/m 25,1 km/h (4 Bft) 95,74 %
16.06.2017 01:14 17,2 C 17,2 C 15,0 C 81 % 0 lf 1014,7 hPa 0,0 l/m 0 min 0 min 0 W/m 16,7 km/h (3 Bft) 95,74 %
16.06.2017 01:16 17,2 C 17,2 C 15,0 C 81 % 0 lf 1014,8 hPa 0,0 l/m 0 min 0 min 0 W/m 20,9 km/h (4 Bft) 97,87 %
16.06.2017 01:18 17,2 C 16,7 C 15,0 C 80 % 0 lf 1014,8 hPa 0,0 l/m 0 min 0 min 0 W/m 14,6 km/h (3 Bft) 97,87 %
16.06.2017 01:20 17,2 C 16,7 C 15,0 C 80 % 0 lf 1014,8 hPa 0,0 l/m 0 min 0 min 0 W/m 25,1 km/h (4 Bft) 95,74 %
16.06.2017 01:22 17,2 C 16,7 C 15,0 C 80 % 0 lf 1014,8 hPa 0,0 l/m 0 min 0 min 0 W/m 14,6 km/h (3 Bft) 95,65 %
16.06.2017 01:24 17,2 C 16,7 C 15,0 C 80 % 0 lf 1014,8 hPa 0,0 l/m 0 min 0 min 0 W/m 18,8 km/h (3 Bft) 95,74 %
16.06.2017 01:26 17,2 C 16,7 C 15,0 C 80 % 0 lf 1014,8 hPa 0,0 l/m 0 min 0 min 0 W/m 20,9 km/h (4 Bft) 93,62 %
16.06.2017 01:28 17,2 C 16,7 C 15,0 C 80 % 0 lf 1014,8 hPa 0,0 l/m 0 min 0 min 0 W/m 12,6 km/h (3 Bft) 95,74 %
16.06.2017 01:30 17,2 C 16,7 C 15,0 C 80 % 0 lf 1014,8 hPa 0,0 l/m 0 min 0 min 0 W/m 14,6 km/h (3 Bft) 95,74 %
16.06.2017 01:32 17,2 C 16,7 C 15,0 C 80 % 0 lf 1014,8 hPa 0,0 l/m 0 min 0 min 0 W/m 14,6 km/h (3 Bft) 95,74 %
16.06.2017 01:34 17,2 C 16,7 C 14,4 C 80 % 0 lf 1014,8 hPa 0,0 l/m 0 min 0 min 0 W/m 18,8 km/h (3 Bft) 95,65 %
16.06.2017 01:36 17,2 C 16,7 C 15,0 C 80 % 0 lf 1014,8 hPa 0,0 l/m 0 min 0 min 0 W/m 16,7 km/h (3 Bft) 93,62 %
16.06.2017 01:38 17,1 C 16,7 C 14,4 C 80 % 0 lf 1014,8 hPa 0,0 l/m 0 min 0 min 0 W/m 12,6 km/h (3 Bft) 97,87 %
16.06.2017 01:40 17,1 C 16,7 C 14,4 C 80 % 0 lf 1014,8 hPa 0,0 l/m 0 min 0 min 0 W/m 8,4 km/h (2 Bft) 95,74 %
16.06.2017 01:42 17,1 C 16,7 C 14,4 C 80 % 0 lf 1014,8 hPa 0,0 l/m 0 min 0 min 0 W/m 8,4 km/h (2 Bft) 91,49 %
16.06.2017 01:44 17,1 C 16,1 C 14,4 C 80 % 0 lf 1014,8 hPa 0,0 l/m 0 min 0 min 0 W/m 6,3 km/h (2 Bft) 95,74 %
16.06.2017 01:46 17,1 C 16,1 C 14,4 C 80 % 0 lf 1014,8 hPa 0,0 l/m 0 min 0 min 0 W/m 14,6 km/h (3 Bft) 93,48 %
16.06.2017 01:48 17,1 C 16,1 C 14,4 C 80 % 0 lf 1014,7 hPa 0,0 l/m 0 min 0 min 0 W/m 12,6 km/h (3 Bft) 95,74 %
16.06.2017 01:50 17,0 C 16,1 C 14,4 C 80 % 0 lf 1014,8 hPa 0,0 l/m 0 min 0 min 0 W/m 14,6 km/h (3 Bft) 97,87 %
16.06.2017 01:52 16,9 C 16,1 C 14,4 C 80 % 0 lf 1014,7 hPa 0,0 l/m 0 min 0 min 0 W/m 12,6 km/h (3 Bft) 97,87 %
16.06.2017 01:54 16,9 C 16,1 C 14,4 C 80 % 0 lf 1014,7 hPa 0,0 l/m 0 min 0 min 0 W/m 14,6 km/h (3 Bft) 95,74 %
16.06.2017 01:56 16,9 C 16,1 C 14,4 C 80 % 0 lf 1014,7 hPa 0,0 l/m 0 min 0 min 0 W/m 12,6 km/h (3 Bft) 100,00 %
16.06.2017 01:58 16,8 C 16,1 C 14,4 C 81 % 0 lf 1014,7 hPa 0,0 l/m 0 min 0 min 0 W/m 12,6 km/h (3 Bft) 100,00 %
16.06.2017 02:00 16,8 C 16,1 C 14,4 C 81 % 0 lf 1014,8 hPa 0,0 l/m 0 min 0 min 0 W/m 14,6 km/h (3 Bft) 100,00 %
16.06.2017 02:02 16,8 C 16,1 C 14,4 C 81 % 0 lf 1014,7 hPa 0,0 l/m 0 min 0 min 0 W/m 14,6 km/h (3 Bft) 97,87 %
16.06.2017 02:04 16,7 C 16,1 C 14,4 C 81 % 0 lf 1014,8 hPa 0,0 l/m 0 min 0 min 0 W/m 12,6 km/h (3 Bft) 100,00 %
16.06.2017 02:06 16,7 C 16,1 C 14,4 C 81 % 0 lf 1014,8 hPa 0,0 l/m 0 min 0 min 0 W/m 10,5 km/h (2 Bft) 97,87 %
16.06.2017 02:08 16,7 C 16,1 C 14,4 C 81 % 0 lf 1014,7 hPa 0,0 l/m 0 min 0 min 0 W/m 10,5 km/h (2 Bft) 100,00 %
16.06.2017 02:10 16,6 C 16,1 C 14,4 C 81 % 0 lf 1014,7 hPa 0,0 l/m 0 min 0 min 0 W/m 14,6 km/h (3 Bft) 97,87 %
16.06.2017 02:12 16,6 C 16,1 C 14,4 C 81 % 0 lf 1014,7 hPa 0,0 l/m 0 min 0 min 0 W/m 14,6 km/h (3 Bft) 100,00 %
16.06.2017 02:14 16,6 C 16,1 C 14,4 C 81 % 0 lf 1014,7 hPa 0,0 l/m 0 min 0 min 0 W/m 14,6 km/h (3 Bft) 100,00 %
16.06.2017 02:16 16,6 C 16,1 C 14,4 C 81 % 0 lf 1014,7 hPa 0,0 l/m 0 min 0 min 0 W/m 10,5 km/h (2 Bft) 97,87 %
16.06.2017 02:18 16,5 C 16,1 C 15,0 C 81 % 0 lf 1014,8 hPa 0,0 l/m 0 min 0 min 0 W/m 16,7 km/h (3 Bft) 100,00 %
16.06.2017 02:20 16,5 C 16,1 C 14,4 C 81 % 0 lf 1014,8 hPa 0,0 l/m 0 min 0 min 0 W/m 12,6 km/h (3 Bft) 100,00 %
16.06.2017 02:22 16,5 C 16,1 C 14,4 C 81 % 0 lf 1014,8 hPa 0,0 l/m 0 min 0 min 0 W/m 12,6 km/h (3 Bft) 100,00 %
16.06.2017 02:24 16,5 C 16,1 C 14,4 C 81 % 0 lf 1014,8 hPa 0,0 l/m 0 min 0 min 0 W/m 12,6 km/h (3 Bft) 100,00 %
16.06.2017 02:26 16,5 C 16,1 C 14,4 C 81 % 0 lf 1014,9 hPa 0,0 l/m 0 min 0 min 0 W/m 12,6 km/h (3 Bft) 100,00 %
16.06.2017 02:28 16,4 C 16,1 C 14,4 C 81 % 0 lf 1014,9 hPa 0,0 l/m 0 min 0 min 0 W/m 14,6 km/h (3 Bft) 97,87 %
16.06.2017 02:30 16,4 C 16,1 C 14,4 C 81 % 0 lf 1014,8 hPa 0,0 l/m 0 min 0 min 0 W/m 12,6 km/h (3 Bft) 100,00 %
16.06.2017 02:32 16,4 C 16,1 C 14,4 C 81 % 0 lf 1014,9 hPa 0,0 l/m 0 min 0 min 0 W/m 12,6 km/h (3 Bft) 95,65 %
16.06.2017 02:34 16,4 C 16,1 C 14,4 C 81 % 0 lf 1014,8 hPa 0,0 l/m 0 min 0 min 0 W/m 16,7 km/h (3 Bft) 100,00 %
16.06.2017 02:36 16,4 C 16,1 C 14,4 C 81 % 0 lf 1014,9 hPa 0,0 l/m 0 min 0 min 0 W/m 12,6 km/h (3 Bft) 97,87 %
16.06.2017 02:38 16,4 C 16,1 C 14,4 C 81 % 0 lf 1014,9 hPa 0,0 l/m 0 min 0 min 0 W/m 14,6 km/h (3 Bft) 97,87 %
16.06.2017 02:40 16,4 C 16,1 C 14,4 C 81 % 0 lf 1014,9 hPa 0,0 l/m 0 min 0 min 0 W/m 16,7 km/h (3 Bft) 93,62 %
16.06.2017 02:42 16,4 C 16,1 C 14,4 C 81 % 0 lf 1014,9 hPa 0,0 l/m 0 min 0 min 0 W/m 10,5 km/h (2 Bft) 97,87 %
16.06.2017 02:44 16,4 C 16,1 C 14,4 C 81 % 0 lf 1015,0 hPa 0,0 l/m 0 min 0 min 0 W/m 14,6 km/h (3 Bft) 97,83 %
16.06.2017 02:46 16,4 C 16,1 C 14,4 C 81 % 0 lf 1014,9 hPa 0,0 l/m 0 min 0 min 0 W/m 18,8 km/h (3 Bft) 97,87 %
16.06.2017 02:48 16,4 C 16,1 C 14,4 C 81 % 0 lf 1015,0 hPa 0,0 l/m 0 min 0 min 0 W/m 14,6 km/h (3 Bft) 95,74 %
16.06.2017 02:50 16,4 C 16,1 C 14,4 C 81 % 0 lf 1015,0 hPa 0,0 l/m 0 min 0 min 0 W/m 14,6 km/h (3 Bft) 93,62 %
16.06.2017 02:52 16,4 C 16,1 C 14,4 C 81 % 0 lf 1015,1 hPa 0,0 l/m 0 min 0 min 0 W/m 8,4 km/h (2 Bft) 97,87 %
16.06.2017 02:54 16,4 C 16,1 C 14,4 C 81 % 0 lf 1015,0 hPa 0,0 l/m 0 min 0 min 0 W/m 16,7 km/h (3 Bft) 95,74 %
16.06.2017 02:56 16,4 C 16,1 C 14,4 C 81 % 0 lf 1015,1 hPa 0,0 l/m 0 min 0 min 0 W/m 10,5 km/h (2 Bft) 95,65 %
16.06.2017 02:58 16,4 C 16,1 C 14,4 C 82 % 0 lf 1015,1 hPa 0,0 l/m 0 min 0 min 0 W/m 12,6 km/h (3 Bft) 93,62 %
16.06.2017 03:00 16,4 C 16,1 C 14,4 C 82 % 0 lf 1015,2 hPa 0,0 l/m 0 min 0 min 0 W/m 14,6 km/h (3 Bft) 95,74 %
16.06.2017 03:02 16,4 C 16,1 C 15,0 C 82 % 0 lf 1015,2 hPa 0,0 l/m 0 min 0 min 0 W/m 12,6 km/h (3 Bft) 95,74 %
16.06.2017 03:04 16,4 C 16,1 C 15,0 C 82 % 0 lf 1015,2 hPa 0,0 l/m 0 min 0 min 0 W/m 16,7 km/h (3 Bft) 95,74 %
16.06.2017 03:06 16,4 C 16,1 C 15,0 C 82 % 0 lf 1015,2 hPa 0,0 l/m 0 min 0 min 0 W/m 16,7 km/h (3 Bft) 93,62 %
16.06.2017 03:08 16,4 C 16,1 C 15,0 C 82 % 0 lf 1015,3 hPa 0,0 l/m 0 min 0 min 0 W/m 14,6 km/h (3 Bft) 95,65 %
16.06.2017 03:10 16,4 C 16,1 C 14,4 C 82 % 0 lf 1015,2 hPa 0,0 l/m 0 min 0 min 0 W/m 12,6 km/h (3 Bft) 93,62 %
16.06.2017 03:12 16,4 C 16,1 C 14,4 C 82 % 0 lf 1015,3 hPa 0,0 l/m 0 min 0 min 0 W/m 12,6 km/h (3 Bft) 93,62 %
16.06.2017 03:14 16,3 C 16,1 C 14,4 C 82 % 0 lf 1015,3 hPa 0,0 l/m 0 min 0 min 0 W/m 18,8 km/h (3 Bft) 93,62 %
16.06.2017 03:16 16,3 C 16,1 C 14,4 C 82 % 0 lf 1015,3 hPa 0,0 l/m 0 min 0 min 0 W/m 14,6 km/h (3 Bft) 95,74 %
16.06.2017 03:18 16,3 C 16,1 C 14,4 C 82 % 0 lf 1015,3 hPa 0,0 l/m 0 min 0 min 0 W/m 12,6 km/h (3 Bft) 93,62 %
16.06.2017 03:20 16,3 C 16,1 C 14,4 C 82 % 0 lf 1015,3 hPa 0,0 l/m 0 min 0 min 0 W/m 8,4 km/h (2 Bft) 95,65 %
16.06.2017 03:22 16,3 C 16,1 C 14,4 C 82 % 0 lf 1015,4 hPa 0,0 l/m 0 min 0 min 0 W/m 10,5 km/h (2 Bft) 93,62 %
16.06.2017 03:24 16,3 C 16,1 C 14,4 C 82 % 0 lf 1015,4 hPa 0,0 l/m 0 min 0 min 0 W/m 12,6 km/h (3 Bft) 93,62 %
16.06.2017 03:26 16,3 C 15,6 C 13,9 C 82 % 0 lf 1015,4 hPa 0,0 l/m 0 min 0 min 0 W/m 10,5 km/h (2 Bft) 91,49 %
16.06.2017 03:28 16,3 C 15,6 C 13,9 C 82 % 0 lf 1015,4 hPa 0,0 l/m 0 min 0 min 0 W/m 18,8 km/h (3 Bft) 93,62 %
16.06.2017 03:30 16,2 C 15,6 C 13,9 C 82 % 0 lf 1015,4 hPa 0,0 l/m 0 min 0 min 0 W/m 12,6 km/h (3 Bft) 95,74 %
16.06.2017 03:32 16,2 C 15,6 C 13,9 C 83 % 0 lf 1015,4 hPa 0,0 l/m 0 min 0 min 0 W/m 10,5 km/h (2 Bft) 95,65 %
16.06.2017 03:34 16,2 C 15,6 C 13,9 C 82 % 0 lf 1015,5 hPa 0,0 l/m 0 min 0 min 0 W/m 12,6 km/h (3 Bft) 95,74 %
16.06.2017 03:37 16,2 C 15,6 C 13,9 C 83 % 0 lf 1015,5 hPa 0,0 l/m 0 min 0 min 0 W/m 14,6 km/h (3 Bft) 95,71 %
16.06.2017 03:38 16,2 C 15,6 C 13,9 C 83 % 0 lf 1015,5 hPa 0,0 l/m 0 min 0 min 0 W/m 8,4 km/h (2 Bft) 91,67 %
16.06.2017 03:40 16,2 C 15,6 C 13,9 C 83 % 0 lf 1015,5 hPa 0,0 l/m 0 min 0 min 0 W/m 10,5 km/h (2 Bft) 93,62 %
16.06.2017 03:42 16,1 C 15,6 C 13,9 C 83 % 0 lf 1015,6 hPa 0,0 l/m 0 min 0 min 0 W/m 12,6 km/h (3 Bft) 95,65 %
16.06.2017 03:44 16,1 C 15,6 C 13,9 C 83 % 0 lf 1015,6 hPa 0,0 l/m 0 min 0 min 0 W/m 10,5 km/h (2 Bft) 93,62 %
16.06.2017 03:46 16,1 C 15,6 C 13,9 C 83 % 0 lf 1015,6 hPa 0,0 l/m 0 min 0 min 0 W/m 10,5 km/h (2 Bft) 97,87 %
16.06.2017 03:48 16,1 C 15,6 C 13,9 C 83 % 0 lf 1015,6 hPa 0,0 l/m 0 min 0 min 0 W/m 12,6 km/h (3 Bft) 97,87 %
16.06.2017 03:50 16,0 C 15,6 C 13,9 C 83 % 0 lf 1015,6 hPa 0,0 l/m 0 min 0 min 0 W/m 12,6 km/h (3 Bft) 95,74 %
16.06.2017 03:52 16,0 C 15,6 C 13,9 C 84 % 0 lf 1015,5 hPa 0,0 l/m 0 min 0 min 0 W/m 10,5 km/h (2 Bft) 97,87 %
16.06.2017 03:54 15,9 C 15,6 C 13,9 C 84 % 0 lf 1015,7 hPa 0,0 l/m 0 min 0 min 0 W/m 12,6 km/h (3 Bft) 100,00 %
16.06.2017 03:56 15,9 C 15,0 C 13,9 C 84 % 0 lf 1015,7 hPa 0,0 l/m 0 min 0 min 0 W/m 10,5 km/h (2 Bft) 97,87 %
16.06.2017 03:58 15,9 C 15,0 C 13,9 C 84 % 0 lf 1015,7 hPa 0,0 l/m 0 min 0 min 0 W/m 12,6 km/h (3 Bft) 100,00 %
16.06.2017 04:00 15,9 C 15,6 C 13,9 C 84 % 0 lf 1015,7 hPa 0,0 l/m 0 min 0 min 0 W/m 14,6 km/h (3 Bft) 100,00 %
16.06.2017 04:05 15,8 C 15,6 C 13,9 C 84 % 0 lf 1015,6 hPa 0,0 l/m 0 min 0 min 0 W/m 10,5 km/h (2 Bft) 96,67 %
16.06.2017 04:06 15,8 C 15,0 C 13,9 C 84 % 0 lf 1015,6 hPa 0,0 l/m 0 min 0 min 0 W/m 8,4 km/h (2 Bft) 100,00 %
16.06.2017 04:08 15,8 C 15,0 C 13,9 C 84 % 0 lf 1015,7 hPa 0,0 l/m 0 min 0 min 0 W/m 10,5 km/h (2 Bft) 97,87 %
16.06.2017 04:10 15,8 C 15,0 C 13,9 C 84 % 0 lf 1015,6 hPa 0,0 l/m 0 min 0 min 0 W/m 10,5 km/h (2 Bft) 93,62 %
16.06.2017 04:12 15,7 C 15,0 C 13,9 C 84 % 0 lf 1015,7 hPa 0,0 l/m 0 min 0 min 0 W/m 10,5 km/h (2 Bft) 100,00 %
16.06.2017 04:14 15,7 C 15,0 C 13,3 C 84 % 0 lf 1015,6 hPa 0,0 l/m 0 min 0 min 0 W/m 14,6 km/h (3 Bft) 95,74 %
16.06.2017 04:16 15,7 C 15,0 C 13,3 C 84 % 0 lf 1015,6 hPa 0,0 l/m 0 min 0 min 0 W/m 10,5 km/h (2 Bft) 97,87 %
16.06.2017 04:18 15,7 C 15,0 C 13,3 C 84 % 0 lf 1015,6 hPa 0,0 l/m 0 min 0 min 0 W/m 12,6 km/h (3 Bft) 100,00 %
16.06.2017 04:20 15,6 C 15,0 C 13,3 C 84 % 0 lf 1015,7 hPa 0,0 l/m 0 min 0 min 0 W/m 12,6 km/h (3 Bft) 100,00 %
16.06.2017 04:22 15,6 C 15,0 C 13,3 C 84 % 0 lf 1015,7 hPa 0,0 l/m 0 min 0 min 0 W/m 14,6 km/h (3 Bft) 100,00 %
16.06.2017 04:24 15,6 C 15,0 C 13,3 C 84 % 0 lf 1015,7 hPa 0,0 l/m 0 min 0 min 0 W/m 14,6 km/h (3 Bft) 100,00 %
16.06.2017 04:26 15,6 C 15,0 C 13,3 C 84 % 0 lf 1015,7 hPa 0,0 l/m 0 min 0 min 0 W/m 12,6 km/h (3 Bft) 97,87 %
16.06.2017 04:28 15,6 C 15,0 C 13,3 C 84 % 0 lf 1015,7 hPa 0,0 l/m 0 min 0 min 0 W/m 8,4 km/h (2 Bft) 100,00 %
16.06.2017 04:30 15,5 C 15,0 C 13,3 C 84 % 0 lf 1015,7 hPa 0,0 l/m 0 min 0 min 0 W/m 12,6 km/h (3 Bft) 97,83 %
16.06.2017 04:32 15,5 C 15,0 C 13,3 C 85 % 0 lf 1015,7 hPa 0,0 l/m 0 min 0 min 0 W/m 12,6 km/h (3 Bft) 97,87 %
16.06.2017 04:34 15,4 C 15,0 C 13,3 C 85 % 0 lf 1015,7 hPa 0,0 l/m 0 min 0 min 0 W/m 12,6 km/h (3 Bft) 95,74 %
16.06.2017 04:36 15,4 C 15,0 C 13,3 C 85 % 0 lf 1015,8 hPa 0,0 l/m 0 min 0 min 0 W/m 8,4 km/h (2 Bft) 97,87 %
16.06.2017 04:38 15,4 C 15,0 C 13,9 C 85 % 0 lf 1015,8 hPa 0,0 l/m 0 min 0 min 0 W/m 8,4 km/h (2 Bft) 95,74 %
16.06.2017 04:40 15,4 C 15,0 C 13,3 C 85 % 0 lf 1015,8 hPa 0,0 l/m 0 min 0 min 0 W/m 6,3 km/h (2 Bft) 97,87 %
16.06.2017 04:42 15,4 C 15,0 C 13,3 C 85 % 0 lf 1015,8 hPa 0,0 l/m 0 min 0 min 0 W/m 8,4 km/h (2 Bft) 97,83 %
16.06.2017 04:44 15,4 C 15,0 C 13,3 C 85 % 0 lf 1015,8 hPa 0,0 l/m 0 min 0 min 0 W/m 6,3 km/h (2 Bft) 95,74 %
16.06.2017 04:46 15,4 C 15,0 C 13,3 C 85 % 0 lf 1015,8 hPa 0,0 l/m 0 min 0 min 0 W/m 10,5 km/h (2 Bft) 97,87 %
16.06.2017 04:48 15,4 C 15,0 C 13,3 C 85 % 0 lf 1015,8 hPa 0,0 l/m 0 min 0 min 0 W/m 10,5 km/h (2 Bft) 97,87 %
16.06.2017 04:50 15,4 C 15,0 C 13,3 C 85 % 0 lf 1015,8 hPa 0,0 l/m 0 min 0 min 0 W/m 12,6 km/h (3 Bft) 93,62 %
16.06.2017 04:52 15,4 C 15,0 C 13,3 C 85 % 0 lf 1015,8 hPa 0,0 l/m 0 min 0 min 0 W/m 18,8 km/h (3 Bft) 97,83 %
16.06.2017 04:54 15,3 C 15,0 C 13,9 C 85 % 0 lf 1015,8 hPa 0,0 l/m 0 min 0 min 0 W/m 10,5 km/h (2 Bft) 95,74 %
16.06.2017 04:56 15,3 C 15,0 C 13,9 C 85 % 0 lf 1015,7 hPa 0,0 l/m 0 min 0 min 0 W/m 14,6 km/h (3 Bft) 95,74 %
16.06.2017 04:58 15,3 C 15,0 C 13,9 C 85 % 0 lf 1015,7 hPa 0,0 l/m 0 min 0 min 0 W/m 10,5 km/h (2 Bft) 97,87 %
16.06.2017 05:00 15,3 C 15,0 C 13,9 C 86 % 0 lf 1015,8 hPa 0,0 l/m 0 min 0 min 10 W/m 14,6 km/h (3 Bft) 95,74 %
16.06.2017 05:02 15,3 C 15,0 C 13,9 C 86 % 0 lf 1015,9 hPa 0,0 l/m 0 min 0 min 10 W/m 18,8 km/h (3 Bft) 97,87 %
16.06.2017 05:04 15,3 C 15,0 C 13,9 C 86 % 0 lf 1015,9 hPa 0,0 l/m 0 min 0 min 10 W/m 14,6 km/h (3 Bft) 95,65 %
16.06.2017 05:06 15,3 C 15,0 C 13,9 C 86 % 0 lf 1015,9 hPa 0,0 l/m 0 min 0 min 10 W/m 14,6 km/h (3 Bft) 97,87 %
16.06.2017 05:08 15,3 C 15,0 C 13,9 C 86 % 0 lf 1015,9 hPa 0,0 l/m 0 min 0 min 10 W/m 14,6 km/h (3 Bft) 97,87 %
16.06.2017 05:10 15,3 C 15,0 C 13,9 C 86 % 0 lf 1016,0 hPa 0,0 l/m 0 min 0 min 10 W/m 16,7 km/h (3 Bft) 97,87 %
16.06.2017 05:12 15,3 C 15,0 C 13,9 C 86 % 0 lf 1016,0 hPa 0,0 l/m 0 min 0 min 10 W/m 14,6 km/h (3 Bft) 95,74 %
16.06.2017 05:14 15,3 C 15,0 C 13,9 C 86 % 0 lf 1016,1 hPa 0,0 l/m 0 min 0 min 10 W/m 14,6 km/h (3 Bft) 95,74 %
16.06.2017 05:16 15,3 C 15,0 C 13,3 C 86 % 0 lf 1016,1 hPa 0,0 l/m 0 min 0 min 12 W/m 14,6 km/h (3 Bft) 95,65 %
16.06.2017 05:18 15,3 C 15,0 C 13,3 C 86 % 0 lf 1016,1 hPa 0,0 l/m 0 min 0 min 15 W/m 14,6 km/h (3 Bft) 93,62 %
16.06.2017 05:20 15,2 C 15,0 C 13,3 C 86 % 0 lf 1016,1 hPa 0,0 l/m 0 min 0 min 15 W/m 20,9 km/h (4 Bft) 89,36 %
16.06.2017 05:22 15,2 C 15,0 C 13,3 C 86 % 0 lf 1016,1 hPa 0,0 l/m 0 min 0 min 15 W/m 10,5 km/h (2 Bft) 95,74 %
16.06.2017 05:24 15,2 C 15,0 C 13,3 C 86 % 0 lf 1016,2 hPa 0,0 l/m 0 min 0 min 15 W/m 12,6 km/h (3 Bft) 95,74 %
16.06.2017 05:26 15,2 C 15,0 C 13,3 C 86 % 0 lf 1016,2 hPa 0,0 l/m 0 min 0 min 17 W/m 18,8 km/h (3 Bft) 95,74 %
16.06.2017 05:28 15,2 C 15,0 C 13,3 C 86 % 0 lf 1016,2 hPa 0,0 l/m 0 min 0 min 17 W/m 8,4 km/h (2 Bft) 93,48 %
16.06.2017 05:30 15,2 C 15,0 C 13,3 C 86 % 0 lf 1016,3 hPa 0,0 l/m 0 min 0 min 17 W/m 12,6 km/h (3 Bft) 93,62 %
16.06.2017 05:32 15,2 C 15,0 C 13,3 C 86 % 0 lf 1016,3 hPa 0,0 l/m 0 min 0 min 18 W/m 12,6 km/h (3 Bft) 91,49 %
16.06.2017 05:34 15,2 C 15,0 C 13,3 C 86 % 0 lf 1016,3 hPa 0,0 l/m 0 min 0 min 19 W/m 16,7 km/h (3 Bft) 89,36 %
16.06.2017 05:36 15,2 C 15,0 C 13,3 C 86 % 0 lf 1016,2 hPa 0,0 l/m 2 min 0 min 21 W/m 12,6 km/h (3 Bft) 93,62 %
16.06.2017 05:38 15,1 C 14,4 C 13,3 C 86 % 0 lf 1016,3 hPa 0,0 l/m 2 min 0 min 22 W/m 10,5 km/h (2 Bft) 93,62 %
16.06.2017 05:40 15,1 C 14,4 C 13,3 C 86 % 0 lf 1016,3 hPa 0,0 l/m 2 min 0 min 22 W/m 14,6 km/h (3 Bft) 95,65 %
16.06.2017 05:42 15,1 C 15,0 C 13,3 C 86 % 0 lf 1016,3 hPa 0,0 l/m 2 min 0 min 23 W/m 12,6 km/h (3 Bft) 95,74 %
16.06.2017 05:44 15,1 C 15,0 C 13,3 C 86 % 0 lf 1016,4 hPa 0,0 l/m 2 min 0 min 24 W/m 12,6 km/h (3 Bft) 93,62 %
16.06.2017 05:46 15,1 C 15,0 C 13,3 C 86 % 0 lf 1016,3 hPa 0,0 l/m 2 min 0 min 24 W/m 16,7 km/h (3 Bft) 91,49 %
16.06.2017 05:48 15,1 C 15,0 C 13,3 C 86 % 0 lf 1016,4 hPa 0,0 l/m 0 min 0 min 24 W/m 20,9 km/h (4 Bft) 93,62 %
16.06.2017 05:50 15,1 C 15,0 C 13,3 C 86 % 0 lf 1016,4 hPa 0,0 l/m 0 min 0 min 25 W/m 14,6 km/h (3 Bft) 93,62 %
16.06.2017 05:52 15,0 C 15,0 C 13,3 C 86 % 0 lf 1016,4 hPa 0,0 l/m 0 min 0 min 28 W/m 25,1 km/h (4 Bft) 95,65 %
16.06.2017 05:54 15,0 C 15,0 C 13,3 C 86 % 0 lf 1016,4 hPa 0,0 l/m 0 min 0 min 29 W/m 16,7 km/h (3 Bft) 95,74 %
16.06.2017 05:56 15,0 C 15,0 C 13,3 C 86 % 0 lf 1016,4 hPa 0,0 l/m 0 min 0 min 32 W/m 20,9 km/h (4 Bft) 95,74 %
16.06.2017 06:00 15,0 C 15,0 C 13,3 C 86 % 0 lf 1016,5 hPa 0,0 l/m 4 min 0 min 39 W/m 20,9 km/h (4 Bft) 98,25 %
16.06.2017 06:04 14,9 C 15,0 C 13,3 C 87 % 0 lf 1016,5 hPa 0,0 l/m 4 min 0 min 51 W/m 14,6 km/h (3 Bft) 94,55 %
16.06.2017 06:06 14,9 C 15,0 C 13,3 C 87 % 0 lf 1016,6 hPa 0,0 l/m 2 min 0 min 53 W/m 14,6 km/h (3 Bft) 94,29 %
16.06.2017 06:08 14,9 C 15,0 C 13,3 C 86 % 0 lf 1016,6 hPa 0,0 l/m 2 min 0 min 57 W/m 16,7 km/h (3 Bft) 92,16 %
16.06.2017 06:10 14,9 C 15,0 C 13,3 C 86 % 0 lf 1016,5 hPa 0,0 l/m 2 min 0 min 60 W/m 10,5 km/h (2 Bft) 95,74 %
16.06.2017 06:12 14,9 C 15,0 C 13,3 C 86 % 0 lf 1016,6 hPa 0,0 l/m 2 min 0 min 64 W/m 8,4 km/h (2 Bft) 91,49 %
16.06.2017 06:14 14,9 C 15,0 C 13,3 C 86 % 0 lf 1016,6 hPa 0,0 l/m 2 min 0 min 66 W/m 10,5 km/h (2 Bft) 93,48 %
16.06.2017 06:16 14,9 C 15,0 C 13,3 C 87 % 0 lf 1016,6 hPa 0,0 l/m 2 min 0 min 72 W/m 12,6 km/h (3 Bft) 97,87 %
16.06.2017 06:18 14,9 C 15,0 C 13,3 C 87 % 0 lf 1016,6 hPa 0,0 l/m 2 min 0 min 77 W/m 16,7 km/h (3 Bft) 97,87 %
16.06.2017 06:20 14,9 C 15,0 C 13,3 C 87 % 0 lf 1016,6 hPa 0,0 l/m 2 min 0 min 81 W/m 16,7 km/h (3 Bft) 98,15 %
16.06.2017 06:22 14,9 C 15,0 C 13,3 C 87 % 0 lf 1016,6 hPa 0,0 l/m 2 min 0 min 86 W/m 16,7 km/h (3 Bft) 97,87 %
16.06.2017 06:24 14,9 C 15,0 C 13,3 C 87 % 0 lf 1016,6 hPa 0,0 l/m 2 min 0 min 90 W/m 14,6 km/h (3 Bft) 97,87 %
16.06.2017 06:26 14,9 C 15,0 C 13,3 C 87 % 0 lf 1016,6 hPa 0,0 l/m 2 min 0 min 95 W/m 16,7 km/h (3 Bft) 97,83 %
16.06.2017 06:28 14,9 C 15,0 C 13,3 C 87 % 0 lf 1016,6 hPa 0,0 l/m 2 min 0 min 100 W/m 16,7 km/h (3 Bft) 94,74 %
16.06.2017 06:30 14,9 C 15,0 C 13,3 C 87 % 0 lf 1016,7 hPa 0,0 l/m 2 min 0 min 104 W/m 16,7 km/h (3 Bft) 97,87 %
16.06.2017 06:32 14,9 C 15,0 C 13,3 C 87 % 0 lf 1016,8 hPa 0,0 l/m 2 min 0 min 110 W/m 12,6 km/h (3 Bft) 95,92 %
16.06.2017 06:34 14,9 C 15,0 C 13,3 C 87 % 0 lf 1016,8 hPa 0,0 l/m 2 min 0 min 113 W/m 12,6 km/h (3 Bft) 97,87 %
16.06.2017 06:36 14,9 C 15,0 C 13,3 C 87 % 0 lf 1016,8 hPa 0,0 l/m 2 min 0 min 120 W/m 10,5 km/h (2 Bft) 100,00 %
16.06.2017 06:38 14,9 C 15,0 C 13,3 C 87 % 0 lf 1016,8 hPa 0,0 l/m 2 min 0 min 126 W/m 14,6 km/h (3 Bft) 100,00 %
16.06.2017 06:40 14,9 C 15,0 C 13,3 C 87 % 0 lf 1016,9 hPa 0,0 l/m 2 min 0 min 130 W/m 16,7 km/h (3 Bft) 97,37 %
16.06.2017 06:42 14,9 C 15,0 C 13,3 C 87 % 0 lf 1016,9 hPa 0,0 l/m 2 min 0 min 136 W/m 14,6 km/h (3 Bft) 100,00 %
16.06.2017 06:44 14,9 C 15,0 C 13,3 C 87 % 0 lf 1017,0 hPa 0,0 l/m 2 min 0 min 141 W/m 14,6 km/h (3 Bft) 100,00 %
16.06.2017 06:46 14,9 C 15,0 C 13,3 C 87 % 0 lf 1017,0 hPa 0,0 l/m 2 min 0 min 145 W/m 23,0 km/h (4 Bft) 100,00 %
16.06.2017 06:48 14,9 C 15,0 C 13,3 C 87 % 0 lf 1017,0 hPa 0,0 l/m 2 min 0 min 150 W/m 23,0 km/h (4 Bft) 98,15 %
16.06.2017 06:50 14,9 C 15,0 C 13,3 C 87 % 0 lf 1017,0 hPa 0,0 l/m 2 min 0 min 155 W/m 16,7 km/h (3 Bft) 100,00 %
16.06.2017 06:52 14,9 C 15,0 C 13,3 C 87 % 0 lf 1017,0 hPa 0,0 l/m 2 min 0 min 162 W/m 16,7 km/h (3 Bft) 97,87 %
16.06.2017 06:54 14,9 C 15,6 C 13,3 C 88 % 0 lf 1017,0 hPa 0,0 l/m 2 min 0 min 166 W/m 16,7 km/h (3 Bft) 97,87 %
16.06.2017 06:56 14,9 C 15,6 C 13,9 C 88 % 0 lf 1017,0 hPa 0,0 l/m 2 min 0 min 170 W/m 10,5 km/h (2 Bft) 97,37 %
16.06.2017 06:58 15,0 C 15,6 C 13,9 C 88 % 0 lf 1017,1 hPa 0,0 l/m 2 min 0 min 173 W/m 20,9 km/h (4 Bft) 100,00 %
16.06.2017 07:00 15,0 C 15,6 C 13,9 C 88 % 0 lf 1017,1 hPa 0,0 l/m 2 min 0 min 179 W/m 12,6 km/h (3 Bft) 100,00 %
16.06.2017 07:02 15,0 C 15,6 C 13,9 C 88 % 0 lf 1017,0 hPa 0,0 l/m 2 min 0 min 184 W/m 16,7 km/h (3 Bft) 95,74 %
16.06.2017 07:04 15,0 C 15,6 C 13,9 C 88 % 0 lf 1017,0 hPa 0,0 l/m 2 min 0 min 190 W/m 18,8 km/h (3 Bft) 100,00 %
16.06.2017 07:06 15,1 C 15,6 C 13,9 C 88 % 0 lf 1017,0 hPa 0,0 l/m 2 min 0 min 196 W/m 14,6 km/h (3 Bft) 95,74 %
16.06.2017 07:08 15,1 C 15,6 C 13,9 C 88 % 0 lf 1017,0 hPa 0,0 l/m 2 min 0 min 200 W/m 16,7 km/h (3 Bft) 97,87 %
16.06.2017 07:10 15,1 C 15,6 C 13,9 C 88 % 0 lf 1017,0 hPa 0,0 l/m 2 min 0 min 206 W/m 16,7 km/h (3 Bft) 98,15 %
16.06.2017 07:12 15,1 C 15,6 C 13,9 C 88 % 0 lf 1017,0 hPa 0,0 l/m 2 min 0 min 211 W/m 18,8 km/h (3 Bft) 97,83 %
16.06.2017 07:14 15,1 C 15,6 C 13,9 C 88 % 0 lf 1017,0 hPa 0,0 l/m 2 min 0 min 217 W/m 14,6 km/h (3 Bft) 100,00 %
16.06.2017 07:16 15,1 C 15,6 C 13,9 C 88 % 0 lf 1017,0 hPa 0,0 l/m 2 min 0 min 221 W/m 14,6 km/h (3 Bft) 92,11 %
16.06.2017 07:18 15,1 C 15,6 C 13,9 C 88 % 0 lf 1017,0 hPa 0,0 l/m 2 min 0 min 227 W/m 18,8 km/h (3 Bft) 95,74 %
16.06.2017 07:20 15,2 C 15,6 C 13,9 C 88 % 0 lf 1017,0 hPa 0,0 l/m 2 min 0 min 233 W/m 23,0 km/h (4 Bft) 95,74 %
16.06.2017 07:22 15,2 C 15,6 C 13,9 C 88 % 0 lf 1017,0 hPa 0,0 l/m 2 min 0 min 241 W/m 18,8 km/h (3 Bft) 97,87 %
16.06.2017 07:24 15,2 C 15,6 C 13,9 C 88 % 0 lf 1017,0 hPa 0,0 l/m 2 min 0 min 246 W/m 12,6 km/h (3 Bft) 95,83 %
16.06.2017 07:26 15,2 C 15,6 C 13,9 C 88 % 0 lf 1017,0 hPa 0,0 l/m 2 min 0 min 249 W/m 25,1 km/h (4 Bft) 97,87 %
16.06.2017 07:28 15,2 C 15,6 C 13,9 C 88 % 0 lf 1017,0 hPa 0,0 l/m 2 min 0 min 254 W/m 20,9 km/h (4 Bft) 97,87 %
16.06.2017 07:30 15,3 C 16,1 C 13,9 C 88 % 0 lf 1017,1 hPa 0,0 l/m 2 min 0 min 261 W/m 18,8 km/h (3 Bft) 97,87 %
16.06.2017 07:32 15,3 C 16,1 C 13,9 C 87 % 0 lf 1017,1 hPa 0,0 l/m 2 min 0 min 266 W/m 16,7 km/h (3 Bft) 97,87 %
16.06.2017 07:34 15,3 C 16,1 C 13,9 C 87 % 0 lf 1017,1 hPa 0,0 l/m 2 min 0 min 273 W/m 18,8 km/h (3 Bft) 97,87 %
16.06.2017 07:36 15,4 C 16,1 C 14,4 C 87 % 0 lf 1017,1 hPa 0,0 l/m 2 min 0 min 278 W/m 20,9 km/h (4 Bft) 97,83 %
16.06.2017 07:38 15,4 C 16,1 C 14,4 C 87 % 0 lf 1017,1 hPa 0,0 l/m 2 min 0 min 282 W/m 18,8 km/h (3 Bft) 97,87 %
16.06.2017 07:40 15,4 C 16,1 C 14,4 C 87 % 0 lf 1017,2 hPa 0,0 l/m 2 min 0 min 288 W/m 14,6 km/h (3 Bft) 97,87 %
16.06.2017 07:42 15,4 C 16,1 C 14,4 C 87 % 0 lf 1017,2 hPa 0,0 l/m 2 min 0 min 292 W/m 25,1 km/h (4 Bft) 95,74 %
16.06.2017 07:44 15,4 C 16,1 C 14,4 C 87 % 0 lf 1017,3 hPa 0,0 l/m 2 min 0 min 297 W/m 20,9 km/h (4 Bft) 97,87 %
16.06.2017 07:46 15,5 C 16,1 C 14,4 C 87 % 0 lf 1017,3 hPa 0,0 l/m 2 min 0 min 301 W/m 23,0 km/h (4 Bft) 97,87 %
16.06.2017 07:48 15,6 C 16,1 C 14,4 C 87 % 0 lf 1017,3 hPa 0,0 l/m 2 min 0 min 309 W/m 23,0 km/h (4 Bft) 100,00 %
16.06.2017 07:50 15,6 C 16,7 C 14,4 C 87 % 0 lf 1017,3 hPa 0,0 l/m 2 min 0 min 314 W/m 16,7 km/h (3 Bft) 97,37 %
16.06.2017 07:52 15,6 C 16,7 C 14,4 C 87 % 0 lf 1017,3 hPa 0,0 l/m 2 min 0 min 321 W/m 14,6 km/h (3 Bft) 100,00 %
16.06.2017 07:54 15,7 C 16,7 C 14,4 C 87 % 0 lf 1017,4 hPa 0,0 l/m 2 min 0 min 323 W/m 23,0 km/h (4 Bft) 100,00 %
16.06.2017 07:56 15,7 C 16,7 C 14,4 C 87 % 0 lf 1017,4 hPa 0,0 l/m 2 min 0 min 322 W/m 25,1 km/h (4 Bft) 100,00 %
16.06.2017 07:58 15,8 C 16,7 C 14,4 C 86 % 0 lf 1017,4 hPa 0,0 l/m 2 min 0 min 331 W/m 16,7 km/h (3 Bft) 97,87 %
16.06.2017 08:00 15,8 C 16,7 C 14,4 C 86 % 0 lf 1017,4 hPa 0,0 l/m 2 min 0 min 338 W/m 27,2 km/h (4 Bft) 100,00 %
16.06.2017 08:02 15,8 C 16,7 C 15,0 C 87 % 0 lf 1017,5 hPa 0,0 l/m 2 min 0 min 306 W/m 25,1 km/h (4 Bft) 97,96 %
16.06.2017 08:04 15,9 C 16,7 C 15,0 C 86 % 0 lf 1017,4 hPa 0,0 l/m 2 min 0 min 234 W/m 18,8 km/h (3 Bft) 97,87 %
16.06.2017 08:06 15,9 C 17,2 C 15,0 C 86 % 0 lf 1017,5 hPa 0,0 l/m 2 min 0 min 210 W/m 18,8 km/h (3 Bft) 96,23 %
16.06.2017 08:08 15,9 C 17,2 C 15,0 C 86 % 0 lf 1017,5 hPa 0,0 l/m 2 min 0 min 213 W/m 20,9 km/h (4 Bft) 100,00 %
16.06.2017 08:10 15,9 C 17,2 C 15,0 C 86 % 0 lf 1017,6 hPa 0,0 l/m 2 min 0 min 215 W/m 25,1 km/h (4 Bft) 100,00 %
16.06.2017 08:12 16,0 C 17,2 C 15,0 C 86 % 0 lf 1017,6 hPa 0,0 l/m 0 min 0 min 163 W/m 14,6 km/h (3 Bft) 97,96 %
16.06.2017 08:14 16,0 C 17,2 C 15,0 C 86 % 0 lf 1017,5 hPa 0,0 l/m 0 min 0 min 164 W/m 16,7 km/h (3 Bft) 100,00 %
16.06.2017 08:16 16,1 C 17,2 C 15,0 C 86 % 0 lf 1017,6 hPa 0,0 l/m 0 min 0 min 198 W/m 23,0 km/h (4 Bft) 94,34 %
16.06.2017 08:18 16,1 C 17,8 C 15,0 C 86 % 0 lf 1017,5 hPa 0,0 l/m 2 min 0 min 275 W/m 23,0 km/h (4 Bft) 97,37 %
16.06.2017 08:20 16,1 C 17,8 C 15,0 C 86 % 0 lf 1017,6 hPa 0,0 l/m 2 min 0 min 230 W/m 18,8 km/h (3 Bft) 94,00 %
16.06.2017 08:22 16,2 C 18,3 C 15,6 C 86 % 0 lf 1017,6 hPa 0,0 l/m 2 min 0 min 216 W/m 14,6 km/h (3 Bft) 95,74 %
16.06.2017 08:24 16,2 C 18,9 C 15,6 C 86 % 0 lf 1017,7 hPa 0,0 l/m 2 min 0 min 288 W/m 12,6 km/h (3 Bft) 97,14 %
16.06.2017 08:26 16,2 C 18,9 C 15,6 C 86 % 0 lf 1017,7 hPa 0,0 l/m 2 min 0 min 228 W/m 18,8 km/h (3 Bft) 93,75 %
16.06.2017 08:28 16,3 C 20,0 C 15,6 C 86 % 0 lf 1017,7 hPa 0,0 l/m 2 min 0 min 242 W/m 14,6 km/h (3 Bft) 94,74 %
16.06.2017 08:30 16,3 C 21,1 C 16,1 C 86 % 0 lf 1017,8 hPa 0,0 l/m 2 min 0 min 315 W/m 10,5 km/h (2 Bft) 96,00 %
16.06.2017 08:32 16,4 C 22,2 C 16,1 C 86 % 0 lf 1017,8 hPa 0,0 l/m 0 min 0 min 213 W/m 14,6 km/h (3 Bft) 93,62 %
16.06.2017 08:34 16,4 C 23,3 C 16,1 C 85 % 0 lf 1017,8 hPa 0,0 l/m 2 min 0 min 386 W/m 18,8 km/h (3 Bft) 95,74 %
16.06.2017 08:36 16,6 C 24,4 C 16,1 C 85 % 0 lf 1017,8 hPa 0,0 l/m 2 min 0 min 471 W/m 18,8 km/h (3 Bft) 95,65 %
16.06.2017 08:38 16,7 C 25,6 C 16,1 C 86 % 0 lf 1017,9 hPa 0,0 l/m 2 min 0 min 485 W/m 25,1 km/h (4 Bft) 95,74 %
16.06.2017 08:40 16,8 C 25,0 C 16,7 C 85 % 0 lf 1017,9 hPa 0,0 l/m 2 min 0 min 496 W/m 18,8 km/h (3 Bft) 95,74 %
16.06.2017 08:42 16,9 C 26,1 C 16,7 C 85 % 0 lf 1017,9 hPa 0,0 l/m 2 min 0 min 526 W/m 18,8 km/h (3 Bft) 90,57 %
16.06.2017 08:44 17,1 C 25,6 C 17,2 C 85 % 0 lf 1017,9 hPa 0,0 l/m 2 min 0 min 572 W/m 16,7 km/h (3 Bft) 93,62 %
16.06.2017 08:46 17,2 C 25,0 C 17,8 C 84 % 0 lf 1017,9 hPa 0,0 l/m 2 min 0 min 509 W/m 23,0 km/h (4 Bft) 92,11 %
16.06.2017 08:48 17,4 C 22,8 C 17,2 C 83 % 0 lf 1017,8 hPa 0,0 l/m 2 min 0 min 366 W/m 20,9 km/h (4 Bft) 93,48 %
16.06.2017 08:50 17,4 C 21,7 C 17,2 C 83 % 0 lf 1017,9 hPa 0,0 l/m 0 min 0 min 177 W/m 8,4 km/h (2 Bft) 94,00 %
16.06.2017 08:52 17,6 C 20,0 C 17,2 C 82 % 0 lf 1018,1 hPa 0,0 l/m 0 min 0 min 159 W/m 27,2 km/h (4 Bft) 93,62 %
16.06.2017 08:54 17,6 C 20,0 C 17,2 C 82 % 0 lf 1018,0 hPa 0,0 l/m 0 min 0 min 171 W/m 16,7 km/h (3 Bft) 93,62 %
16.06.2017 08:56 17,6 C 20,6 C 16,7 C 81 % 0 lf 1018,1 hPa 0,0 l/m 0 min 0 min 170 W/m 20,9 km/h (4 Bft) 91,49 %
16.06.2017 08:58 17,6 C 22,2 C 16,7 C 80 % 0 lf 1018,2 hPa 0,0 l/m 0 min 0 min 186 W/m 18,8 km/h (3 Bft) 94,23 %
16.06.2017 09:00 17,7 C 22,2 C 16,7 C 80 % 0 lf 1018,2 hPa 0,0 l/m 0 min 0 min 193 W/m 10,5 km/h (2 Bft) 91,49 %
16.06.2017 09:02 17,7 C 23,9 C 16,7 C 80 % 0 lf 1018,2 hPa 0,0 l/m 0 min 0 min 239 W/m 29,3 km/h (5 Bft) 91,49 %
16.06.2017 09:04 17,8 C 24,4 C 16,7 C 79 % 0 lf 1018,2 hPa 0,0 l/m 2 min 0 min 516 W/m 27,2 km/h (4 Bft) 95,74 %
16.06.2017 09:06 17,8 C 24,4 C 16,7 C 78 % 0 lf 1018,3 hPa 0,0 l/m 2 min 0 min 506 W/m 23,0 km/h (4 Bft) 93,62 %
16.06.2017 09:08 17,9 C 24,4 C 16,7 C 78 % 0 lf 1018,3 hPa 0,0 l/m 2 min 0 min 528 W/m 25,1 km/h (4 Bft) 93,62 %
16.06.2017 09:10 18,1 C 26,1 C 17,2 C 78 % 0 lf 1018,3 hPa 0,0 l/m 2 min 0 min 556 W/m 16,7 km/h (3 Bft) 95,65 %
16.06.2017 09:12 18,1 C 25,6 C 17,2 C 77 % 0 lf 1018,3 hPa 0,0 l/m 2 min 0 min 566 W/m 23,0 km/h (4 Bft) 93,62 %
16.06.2017 09:14 18,2 C 26,1 C 17,8 C 76 % 0 lf 1018,2 hPa 0,0 l/m 2 min 0 min 617 W/m 25,1 km/h (4 Bft) 97,87 %
16.06.2017 09:16 18,3 C 26,1 C 17,8 C 77 % 0 lf 1018,3 hPa 0,0 l/m 2 min 0 min 627 W/m 20,9 km/h (4 Bft) 91,49 %
16.06.2017 09:18 18,4 C 25,6 C 17,8 C 76 % 0 lf 1018,3 hPa 0,0 l/m 2 min 0 min 328 W/m 16,7 km/h (3 Bft) 95,74 %
16.06.2017 09:20 18,5 C 26,1 C 17,8 C 76 % 0 lf 1018,3 hPa 0,0 l/m 2 min 0 min 579 W/m 20,9 km/h (4 Bft) 95,74 %
16.06.2017 09:22 18,6 C 26,7 C 17,8 C 75 % 0 lf 1018,3 hPa 0,0 l/m 2 min 0 min 573 W/m 27,2 km/h (4 Bft) 95,65 %
16.06.2017 09:24 18,7 C 26,7 C 17,2 C 74 % 0 lf 1018,3 hPa 0,0 l/m 2 min 0 min 579 W/m 23,0 km/h (4 Bft) 93,62 %
16.06.2017 09:26 18,7 C 27,2 C 17,8 C 74 % 0 lf 1018,3 hPa 0,0 l/m 2 min 0 min 592 W/m 23,0 km/h (4 Bft) 93,62 %
16.06.2017 09:28 18,8 C 27,2 C 17,8 C 74 % 0 lf 1018,3 hPa 0,0 l/m 2 min 0 min 575 W/m 18,8 km/h (3 Bft) 95,74 %
16.06.2017 09:30 18,9 C 26,7 C 17,8 C 75 % 0 lf 1018,2 hPa 0,0 l/m 2 min 0 min 603 W/m 23,0 km/h (4 Bft) 93,62 %
16.06.2017 09:32 19,1 C 27,2 C 18,3 C 74 % 0 lf 1018,3 hPa 0,0 l/m 2 min 0 min 615 W/m 18,8 km/h (3 Bft) 91,49 %
16.06.2017 09:34 19,1 C 27,8 C 18,3 C 73 % 0 lf 1018,3 hPa 0,0 l/m 2 min 0 min 646 W/m 25,1 km/h (4 Bft) 93,48 %
16.06.2017 09:36 19,2 C 28,3 C 18,3 C 73 % 0 lf 1018,3 hPa 0,0 l/m 2 min 0 min 671 W/m 25,1 km/h (4 Bft) 95,74 %
16.06.2017 09:38 19,2 C 26,7 C 18,3 C 73 % 0 lf 1018,3 hPa 0,0 l/m 2 min 0 min 666 W/m 16,7 km/h (3 Bft) 97,87 %
16.06.2017 09:40 19,3 C 27,8 C 18,9 C 73 % 0 lf 1018,3 hPa 0,0 l/m 2 min 0 min 657 W/m 14,6 km/h (3 Bft) 100,00 %
16.06.2017 09:42 19,4 C 27,2 C 18,9 C 73 % 0 lf 1018,3 hPa 0,0 l/m 2 min 0 min 676 W/m 20,9 km/h (4 Bft) 95,74 %
16.06.2017 09:44 19,6 C 27,8 C 19,4 C 73 % 0 lf 1018,3 hPa 0,0 l/m 2 min 0 min 680 W/m 16,7 km/h (3 Bft) 97,83 %
16.06.2017 09:46 19,7 C 27,2 C 19,4 C 72 % 0 lf 1018,4 hPa 0,0 l/m 2 min 0 min 700 W/m 23,0 km/h (4 Bft) 95,74 %
16.06.2017 09:48 19,8 C 28,3 C 20,0 C 72 % 0 lf 1018,3 hPa 0,0 l/m 2 min 0 min 699 W/m 23,0 km/h (4 Bft) 97,87 %
16.06.2017 09:50 19,9 C 28,9 C 20,0 C 71 % 0 lf 1018,4 hPa 0,0 l/m 2 min 0 min 677 W/m 25,1 km/h (4 Bft) 93,62 %
16.06.2017 09:52 20,0 C 30,0 C 21,1 C 72 % 0 lf 1018,3 hPa 0,0 l/m 2 min 0 min 858 W/m 18,8 km/h (3 Bft) 100,00 %
16.06.2017 09:54 20,2 C 28,3 C 21,7 C 71 % 0 lf 1018,4 hPa 0,0 l/m 2 min 0 min 791 W/m 20,9 km/h (4 Bft) 95,74 %
16.06.2017 09:56 20,3 C 27,2 C 21,7 C 71 % 0 lf 1018,4 hPa 0,0 l/m 2 min 0 min 558 W/m 18,8 km/h (3 Bft) 97,87 %
16.06.2017 09:58 20,4 C 25,6 C 21,1 C 70 % 0 lf 1018,4 hPa 0,0 l/m 2 min 0 min 352 W/m 20,9 km/h (4 Bft) 100,00 %
16.06.2017 10:00 20,3 C 23,9 C 20,0 C 68 % 0 lf 1018,4 hPa 0,0 l/m 0 min 0 min 224 W/m 27,2 km/h (4 Bft) 100,00 %
16.06.2017 10:02 20,2 C 22,2 C 19,4 C 68 % 0 lf 1018,5 hPa 0,0 l/m 0 min 0 min 126 W/m 23,0 km/h (4 Bft) 97,87 %
16.06.2017 10:04 20,1 C 21,1 C 18,3 C 67 % 0 lf 1018,5 hPa 0,0 l/m 0 min 0 min 109 W/m 29,3 km/h (5 Bft) 100,00 %
16.06.2017 10:06 20,0 C 20,6 C 18,3 C 67 % 0 lf 1018,6 hPa 0,0 l/m 0 min 0 min 104 W/m 27,2 km/h (4 Bft) 98,00 %
16.06.2017 10:08 19,9 C 23,3 C 20,6 C 68 % 0 lf 1018,6 hPa 0,0 l/m 2 min 0 min 523 W/m 18,8 km/h (3 Bft) 100,00 %
16.06.2017 10:10 19,8 C 25,6 C 22,2 C 69 % 0 lf 1018,5 hPa 0,0 l/m 2 min 0 min 690 W/m 18,8 km/h (3 Bft) 100,00 %
16.06.2017 10:12 19,8 C 27,2 C 22,8 C 68 % 0 lf 1018,6 hPa 0,0 l/m 2 min 0 min 705 W/m 27,2 km/h (4 Bft) 100,00 %
16.06.2017 10:14 19,8 C 28,3 C 23,3 C 67 % 0 lf 1018,5 hPa 0,0 l/m 2 min 0 min 724 W/m 29,3 km/h (5 Bft) 100,00 %
16.06.2017 10:16 19,9 C 28,9 C 24,4 C 69 % 0 lf 1018,6 hPa 0,0 l/m 2 min 0 min 754 W/m 23,0 km/h (4 Bft) 97,87 %
16.06.2017 10:18 20,0 C 29,4 C 25,0 C 67 % 0 lf 1018,6 hPa 0,0 l/m 2 min 0 min 799 W/m 25,1 km/h (4 Bft) 100,00 %
16.06.2017 10:20 20,1 C 27,8 C 24,4 C 68 % 0 lf 1018,6 hPa 0,0 l/m 2 min 0 min 799 W/m 25,1 km/h (4 Bft) 100,00 %
16.06.2017 10:22 20,2 C 27,2 C 25,0 C 68 % 0 lf 1018,6 hPa 0,0 l/m 2 min 0 min 872 W/m 18,8 km/h (3 Bft) 100,00 %
16.06.2017 10:24 20,2 C 26,1 C 23,3 C 67 % 0 lf 1018,6 hPa 0,0 l/m 2 min 0 min 529 W/m 25,1 km/h (4 Bft) 100,00 %
16.06.2017 10:26 20,2 C 24,4 C 21,7 C 66 % 0 lf 1018,6 hPa 0,0 l/m 0 min 0 min 222 W/m 29,3 km/h (5 Bft) 100,00 %
16.06.2017 10:28 20,1 C 22,8 C 20,0 C 64 % 0 lf 1018,7 hPa 0,0 l/m 0 min 0 min 218 W/m 27,2 km/h (4 Bft) 100,00 %
16.06.2017 10:30 20,1 C 24,4 C 21,7 C 65 % 0 lf 1018,8 hPa 0,0 l/m 2 min 0 min 348 W/m 18,8 km/h (3 Bft) 100,00 %
16.06.2017 10:32 20,1 C 25,6 C 22,8 C 67 % 0 lf 1018,7 hPa 0,0 l/m 2 min 0 min 905 W/m 23,0 km/h (4 Bft) 97,87 %
16.06.2017 10:34 20,1 C 28,3 C 25,0 C 67 % 0 lf 1018,8 hPa 0,0 l/m 2 min 0 min 962 W/m 18,8 km/h (3 Bft) 97,83 %
16.06.2017 10:36 20,3 C 28,9 C 25,6 C 67 % 0 lf 1018,8 hPa 0,0 l/m 2 min 0 min 740 W/m 25,1 km/h (4 Bft) 100,00 %
16.06.2017 10:38 20,4 C 26,7 C 23,9 C 65 % 0 lf 1018,8 hPa 0,0 l/m 2 min 0 min 808 W/m 16,7 km/h (3 Bft) 100,00 %
16.06.2017 10:40 20,4 C 25,0 C 22,8 C 65 % 0 lf 1018,8 hPa 0,0 l/m 0 min 0 min 262 W/m 20,9 km/h (4 Bft) 98,00 %
16.06.2017 10:42 20,4 C 23,3 C 21,1 C 65 % 0 lf 1018,9 hPa 0,0 l/m 0 min 0 min 213 W/m 18,8 km/h (3 Bft) 85,71 %
16.06.2017 10:44 20,3 C 22,2 C 20,0 C 65 % 0 lf 1018,9 hPa 0,0 l/m 0 min 0 min 187 W/m 18,8 km/h (3 Bft) 100,00 %
16.06.2017 10:46 20,2 C 21,7 C 20,0 C 66 % 0 lf 1018,9 hPa 0,0 l/m 0 min 0 min 193 W/m 16,7 km/h (3 Bft) 100,00 %
16.06.2017 10:48 20,1 C 21,1 C 19,4 C 66 % 0 lf 1018,9 hPa 0,0 l/m 0 min 0 min 208 W/m 20,9 km/h (4 Bft) 100,00 %
16.06.2017 10:50 20,0 C 21,1 C 18,9 C 66 % 0 lf 1019,0 hPa 0,0 l/m 0 min 0 min 224 W/m 25,1 km/h (4 Bft) 98,00 %
16.06.2017 10:52 19,9 C 20,6 C 18,9 C 66 % 0 lf 1019,0 hPa 0,0 l/m 0 min 0 min 257 W/m 23,0 km/h (4 Bft) 100,00 %
16.06.2017 10:54 19,8 C 22,2 C 20,0 C 66 % 0 lf 1019,0 hPa 0,0 l/m 0 min 0 min 311 W/m 18,8 km/h (3 Bft) 97,87 %
16.06.2017 10:56 19,8 C 25,6 C 23,3 C 69 % 0 lf 1019,1 hPa 0,0 l/m 0 min 0 min 311 W/m 20,9 km/h (4 Bft) 97,14 %
16.06.2017 10:58 19,9 C 26,7 C 23,9 C 68 % 0 lf 1019,1 hPa 0,0 l/m 0 min 0 min 311 W/m 23,0 km/h (4 Bft) 98,28 %
16.06.2017 11:00 20,0 C 28,3 C 25,0 C 69 % 0 lf 1019,1 hPa 0,0 l/m 0 min 0 min 354 W/m 12,6 km/h (3 Bft) 96,23 %
16.06.2017 11:02 20,2 C 26,7 C 23,9 C 68 % 0 lf 1019,1 hPa 0,0 l/m 2 min 0 min 451 W/m 20,9 km/h (4 Bft) 97,87 %
16.06.2017 11:04 20,2 C 25,6 C 23,3 C 68 % 0 lf 1019,1 hPa 0,0 l/m 0 min 0 min 364 W/m 23,0 km/h (4 Bft) 100,00 %
16.06.2017 11:06 20,3 C 24,4 C 22,8 C 68 % 0 lf 1019,1 hPa 0,0 l/m 0 min 0 min 337 W/m 16,7 km/h (3 Bft) 94,74 %
16.06.2017 11:08 20,3 C 24,4 C 22,8 C 66 % 0 lf 1019,1 hPa 0,0 l/m 0 min 0 min 333 W/m 16,7 km/h (3 Bft) 97,87 %
16.06.2017 11:10 20,3 C 23,9 C 21,7 C 66 % 0 lf 1019,2 hPa 0,0 l/m 0 min 0 min 262 W/m 20,9 km/h (4 Bft) 95,65 %
16.06.2017 11:12 20,3 C 22,8 C 21,1 C 66 % 0 lf 1019,2 hPa 0,0 l/m 0 min 0 min 227 W/m 25,1 km/h (4 Bft) 98,00 %
16.06.2017 11:14 20,2 C 22,2 C 20,6 C 65 % 0 lf 1019,3 hPa 0,0 l/m 0 min 0 min 226 W/m 25,1 km/h (4 Bft) 97,87 %
16.06.2017 11:16 20,2 C 21,7 C 20,6 C 65 % 0 lf 1019,3 hPa 0,0 l/m 0 min 0 min 267 W/m 18,8 km/h (3 Bft) 94,34 %
16.06.2017 11:18 20,1 C 21,7 C 21,1 C 66 % 0 lf 1019,3 hPa 0,0 l/m 0 min 0 min 333 W/m 25,1 km/h (4 Bft) 97,37 %
16.06.2017 11:20 20,1 C 22,2 C 21,1 C 66 % 0 lf 1019,3 hPa 0,0 l/m 2 min 0 min 398 W/m 16,7 km/h (3 Bft) 95,92 %
16.06.2017 11:22 20,1 C 22,8 C 21,7 C 66 % 0 lf 1019,3 hPa 0,0 l/m 0 min 0 min 378 W/m 14,6 km/h (3 Bft) 97,87 %
16.06.2017 11:24 20,1 C 22,8 C 21,7 C 66 % 0 lf 1019,3 hPa 0,0 l/m 2 min 0 min 420 W/m 29,3 km/h (5 Bft) 95,74 %
16.06.2017 11:26 20,1 C 23,9 C 22,2 C 66 % 0 lf 1019,4 hPa 0,0 l/m 2 min 0 min 446 W/m 23,0 km/h (4 Bft) 95,74 %
16.06.2017 11:28 20,1 C 23,3 C 21,7 C 64 % 0 lf 1019,4 hPa 0,0 l/m 0 min 0 min 381 W/m 29,3 km/h (5 Bft) 97,87 %
16.06.2017 11:30 20,1 C 22,8 C 21,1 C 64 % 0 lf 1019,4 hPa 0,0 l/m 0 min 0 min 318 W/m 27,2 km/h (4 Bft) 93,62 %
16.06.2017 11:32 19,9 C 21,7 C 20,6 C 64 % 0 lf 1019,4 hPa 0,0 l/m 0 min 0 min 280 W/m 25,1 km/h (4 Bft) 95,65 %
16.06.2017 11:34 19,9 C 21,7 C 20,6 C 66 % 0 lf 1019,5 hPa 0,0 l/m 0 min 0 min 250 W/m 18,8 km/h (3 Bft) 94,34 %
16.06.2017 11:36 19,9 C 21,7 C 20,6 C 66 % 0 lf 1019,5 hPa 0,0 l/m 0 min 0 min 257 W/m 29,3 km/h (5 Bft) 92,11 %
16.06.2017 11:38 19,8 C 21,7 C 20,6 C 66 % 0 lf 1019,5 hPa 0,0 l/m 0 min 0 min 302 W/m 20,9 km/h (4 Bft) 96,00 %
16.06.2017 11:40 19,8 C 22,2 C 21,1 C 66 % 0 lf 1019,5 hPa 0,0 l/m 0 min 0 min 349 W/m 16,7 km/h (3 Bft) 95,74 %
16.06.2017 11:42 19,8 C 22,8 C 22,2 C 67 % 0 lf 1019,5 hPa 0,0 l/m 0 min 0 min 379 W/m 29,3 km/h (5 Bft) 93,48 %
16.06.2017 11:44 19,8 C 22,2 C 21,7 C 66 % 0 lf 1019,5 hPa 0,0 l/m 0 min 0 min 347 W/m 18,8 km/h (3 Bft) 95,74 %
16.06.2017 11:46 19,8 C 22,2 C 21,7 C 66 % 0 lf 1019,5 hPa 0,0 l/m 0 min 0 min 329 W/m 18,8 km/h (3 Bft) 92,45 %
16.06.2017 11:48 19,8 C 22,2 C 21,7 C 67 % 0 lf 1019,5 hPa 0,0 l/m 0 min 0 min 293 W/m 12,6 km/h (3 Bft) 95,74 %
16.06.2017 11:50 19,8 C 22,2 C 21,1 C 67 % 0 lf 1019,5 hPa 0,0 l/m 0 min 0 min 247 W/m 12,6 km/h (3 Bft) 94,74 %
16.06.2017 11:52 19,8 C 22,2 C 20,6 C 68 % 0 lf 1019,6 hPa 0,0 l/m 0 min 0 min 205 W/m 20,9 km/h (4 Bft) 93,62 %
16.06.2017 11:54 19,8 C 21,1 C 20,0 C 67 % 0 lf 1019,7 hPa 0,0 l/m 0 min 0 min 187 W/m 23,0 km/h (4 Bft) 95,92 %
16.06.2017 11:56 19,7 C 20,6 C 20,0 C 66 % 0 lf 1019,6 hPa 0,0 l/m 0 min 0 min 230 W/m 25,1 km/h (4 Bft) 91,49 %
16.06.2017 11:58 19,7 C 21,1 C 20,0 C 66 % 0 lf 1019,6 hPa 0,0 l/m 0 min 0 min 313 W/m 16,7 km/h (3 Bft) 95,74 %
16.06.2017 12:00 19,6 C 21,7 C 20,6 C 67 % 0 lf 1019,6 hPa 0,0 l/m 0 min 0 min 375 W/m 23,0 km/h (4 Bft) 95,74 %
16.06.2017 12:02 19,6 C 22,8 C 21,1 C 67 % 0 lf 1019,6 hPa 0,0 l/m 2 min 0 min 405 W/m 23,0 km/h (4 Bft) 95,74 %
16.06.2017 12:04 19,6 C 23,9 C 22,2 C 67 % 0 lf 1019,6 hPa 0,0 l/m 2 min 0 min 525 W/m 27,2 km/h (4 Bft) 93,62 %
16.06.2017 12:06 19,7 C 25,6 C 23,3 C 68 % 0 lf 1019,7 hPa 0,0 l/m 2 min 0 min 531 W/m 27,2 km/h (4 Bft) 93,48 %
16.06.2017 12:08 19,8 C 26,7 C 23,9 C 67 % 0 lf 1019,7 hPa 0,0 l/m 2 min 0 min 578 W/m 25,1 km/h (4 Bft) 88,89 %
16.06.2017 12:10 19,9 C 25,6 C 23,9 C 68 % 0 lf 1019,7 hPa 0,0 l/m 2 min 0 min 624 W/m 16,7 km/h (3 Bft) 94,74 %
16.06.2017 12:12 20,1 C 26,7 C 24,4 C 68 % 0 lf 1019,7 hPa 0,0 l/m 2 min 0 min 501 W/m 16,7 km/h (3 Bft) 95,92 %
16.06.2017 12:14 20,2 C 27,8 C 25,6 C 69 % 0 lf 1019,8 hPa 0,0 l/m 2 min 0 min 501 W/m 14,6 km/h (3 Bft) 93,62 %
16.06.2017 12:16 20,3 C 26,1 C 24,4 C 67 % 0 lf 1019,8 hPa 0,0 l/m 2 min 0 min 487 W/m 23,0 km/h (4 Bft) 91,49 %
16.06.2017 12:18 20,4 C 25,0 C 23,3 C 65 % 0 lf 1019,8 hPa 0,0 l/m 0 min 0 min 400 W/m 25,1 km/h (4 Bft) 95,65 %
16.06.2017 12:20 20,4 C 23,9 C 22,8 C 64 % 0 lf 1019,8 hPa 0,0 l/m 0 min 0 min 385 W/m 20,9 km/h (4 Bft) 96,30 %
16.06.2017 12:22 20,4 C 23,9 C 22,2 C 64 % 0 lf 1019,7 hPa 0,0 l/m 0 min 0 min 345 W/m 20,9 km/h (4 Bft) 91,49 %
16.06.2017 12:24 20,4 C 22,8 C 21,7 C 63 % 0 lf 1019,8 hPa 0,0 l/m 0 min 0 min 303 W/m 25,1 km/h (4 Bft) 95,74 %
16.06.2017 12:26 20,3 C 22,2 C 20,6 C 63 % 0 lf 1019,9 hPa 0,0 l/m 0 min 0 min 279 W/m 25,1 km/h (4 Bft) 95,74 %
16.06.2017 12:28 20,2 C 21,7 C 20,6 C 63 % 0 lf 1020,0 hPa 0,0 l/m 0 min 0 min 281 W/m 18,8 km/h (3 Bft) 93,48 %
16.06.2017 12:30 20,2 C 21,7 C 20,6 C 64 % 0 lf 1019,9 hPa 0,0 l/m 0 min 0 min 306 W/m 20,9 km/h (4 Bft) 94,87 %
16.06.2017 12:32 20,1 C 21,7 C 21,1 C 64 % 0 lf 1019,9 hPa 0,0 l/m 0 min 0 min 325 W/m 18,8 km/h (3 Bft) 97,83 %
16.06.2017 12:34 20,1 C 22,2 C 21,1 C 64 % 0 lf 1020,0 hPa 0,0 l/m 0 min 0 min 363 W/m 25,1 km/h (4 Bft) 97,96 %
16.06.2017 12:36 20,1 C 22,2 C 21,7 C 64 % 0 lf 1019,9 hPa 0,0 l/m 2 min 0 min 420 W/m 23,0 km/h (4 Bft) 97,87 %
16.06.2017 12:38 20,0 C 22,8 C 21,7 C 65 % 0 lf 1020,0 hPa 0,0 l/m 2 min 0 min 436 W/m 23,0 km/h (4 Bft) 95,74 %
16.06.2017 12:40 20,0 C 22,8 C 22,2 C 64 % 0 lf 1019,8 hPa 0,0 l/m 2 min 0 min 440 W/m 27,2 km/h (4 Bft) 94,34 %
16.06.2017 12:42 20,1 C 22,8 C 22,2 C 65 % 0 lf 1019,8 hPa 0,0 l/m 2 min 0 min 428 W/m 37,7 km/h (5 Bft) 95,74 %
16.06.2017 12:44 20,0 C 22,8 C 21,7 C 64 % 0 lf 1019,8 hPa 0,0 l/m 0 min 0 min 388 W/m 23,0 km/h (4 Bft) 100,00 %
16.06.2017 12:46 20,0 C 22,8 C 21,7 C 64 % 0 lf 1019,8 hPa 0,0 l/m 0 min 0 min 328 W/m 31,4 km/h (5 Bft) 97,87 %
16.06.2017 12:48 20,0 C 22,8 C 21,1 C 65 % 0 lf 1019,9 hPa 0,0 l/m 0 min 0 min 257 W/m 23,0 km/h (4 Bft) 95,92 %
16.06.2017 12:50 20,0 C 22,2 C 20,6 C 65 % 0 lf 1020,0 hPa 0,0 l/m 0 min 0 min 223 W/m 25,1 km/h (4 Bft) 95,74 %
16.06.2017 12:52 20,0 C 21,7 C 20,0 C 66 % 0 lf 1020,0 hPa 0,0 l/m 0 min 0 min 223 W/m 18,8 km/h (3 Bft) 95,65 %
16.06.2017 12:54 19,9 C 21,1 C 20,0 C 67 % 0 lf 1020,1 hPa 0,0 l/m 0 min 0 min 245 W/m 18,8 km/h (3 Bft) 97,87 %
16.06.2017 12:56 19,9 C 21,1 C 20,6 C 67 % 0 lf 1020,1 hPa 0,0 l/m 0 min 0 min 288 W/m 20,9 km/h (4 Bft) 97,87 %
16.06.2017 12:58 19,9 C 21,7 C 20,6 C 67 % 0 lf 1020,1 hPa 0,0 l/m 0 min 0 min 332 W/m 14,6 km/h (3 Bft) 97,87 %
16.06.2017 13:00 19,9 C 22,2 C 21,1 C 67 % 0 lf 1020,1 hPa 0,0 l/m 2 min 0 min 433 W/m 18,8 km/h (3 Bft) 100,00 %
16.06.2017 13:02 19,8 C 22,2 C 21,7 C 67 % 0 lf 1020,1 hPa 0,0 l/m 2 min 0 min 469 W/m 20,9 km/h (4 Bft) 97,87 %
16.06.2017 13:04 19,9 C 22,8 C 21,7 C 67 % 0 lf 1020,1 hPa 0,0 l/m 0 min 0 min 422 W/m 23,0 km/h (4 Bft) 100,00 %
16.06.2017 13:06 19,9 C 23,3 C 22,2 C 67 % 0 lf 1020,1 hPa 0,0 l/m 0 min 0 min 366 W/m 20,9 km/h (4 Bft) 100,00 %
16.06.2017 13:08 19,9 C 22,8 C 21,7 C 67 % 0 lf 1020,2 hPa 0,0 l/m 0 min 0 min 331 W/m 20,9 km/h (4 Bft) 100,00 %
16.06.2017 13:10 19,9 C 22,8 C 21,7 C 66 % 0 lf 1020,2 hPa 0,0 l/m 0 min 0 min 304 W/m 16,7 km/h (3 Bft) 97,87 %
16.06.2017 13:12 19,9 C 22,2 C 21,1 C 66 % 0 lf 1020,2 hPa 0,0 l/m 0 min 0 min 297 W/m 18,8 km/h (3 Bft) 97,87 %
16.06.2017 13:14 19,9 C 22,2 C 21,1 C 66 % 0 lf 1020,3 hPa 0,0 l/m 0 min 0 min 296 W/m 20,9 km/h (4 Bft) 93,62 %
16.06.2017 13:16 19,9 C 22,2 C 20,6 C 66 % 0 lf 1020,2 hPa 0,0 l/m 0 min 0 min 299 W/m 16,7 km/h (3 Bft) 97,87 %
16.06.2017 13:18 19,9 C 22,2 C 20,6 C 65 % 0 lf 1020,2 hPa 0,0 l/m 0 min 0 min 269 W/m 29,3 km/h (5 Bft) 97,83 %
16.06.2017 13:20 19,9 C 21,7 C 20,6 C 65 % 0 lf 1020,2 hPa 0,0 l/m 0 min 0 min 277 W/m 31,4 km/h (5 Bft) 100,00 %
16.06.2017 13:22 19,9 C 21,7 C 20,6 C 65 % 0 lf 1020,2 hPa 0,0 l/m 0 min 0 min 281 W/m 23,0 km/h (4 Bft) 97,87 %
16.06.2017 13:24 19,9 C 21,7 C 20,6 C 66 % 0 lf 1020,2 hPa 0,0 l/m 0 min 0 min 272 W/m 20,9 km/h (4 Bft) 100,00 %
16.06.2017 13:26 19,9 C 21,7 C 20,6 C 65 % 0 lf 1020,3 hPa 0,0 l/m 0 min 0 min 256 W/m 18,8 km/h (3 Bft) 100,00 %
16.06.2017 13:28 19,8 C 21,1 C 20,6 C 65 % 0 lf 1020,3 hPa 0,0 l/m 0 min 0 min 230 W/m 20,9 km/h (4 Bft) 97,87 %
16.06.2017 13:30 19,8 C 21,1 C 20,0 C 65 % 0 lf 1020,4 hPa 0,0 l/m 0 min 0 min 209 W/m 29,3 km/h (5 Bft) 95,65 %
16.06.2017 13:32 19,8 C 21,1 C 20,0 C 65 % 0 lf 1020,3 hPa 0,0 l/m 0 min 0 min 206 W/m 20,9 km/h (4 Bft) 95,74 %
16.06.2017 13:34 19,7 C 20,6 C 20,0 C 66 % 0 lf 1020,3 hPa 0,0 l/m 0 min 0 min 218 W/m 16,7 km/h (3 Bft) 95,74 %
16.06.2017 13:36 19,7 C 21,1 C 20,0 C 66 % 0 lf 1020,3 hPa 0,0 l/m 0 min 0 min 231 W/m 16,7 km/h (3 Bft) 95,74 %
16.06.2017 13:38 19,7 C 21,1 C 20,0 C 66 % 0 lf 1020,3 hPa 0,0 l/m 0 min 0 min 256 W/m 18,8 km/h (3 Bft) 97,87 %
16.06.2017 13:40 19,7 C 21,1 C 20,6 C 66 % 0 lf 1020,4 hPa 0,0 l/m 0 min 0 min 284 W/m 27,2 km/h (4 Bft) 95,74 %
16.06.2017 13:42 19,7 C 21,7 C 20,6 C 66 % 0 lf 1020,3 hPa 0,0 l/m 0 min 0 min 311 W/m 23,0 km/h (4 Bft) 95,65 %
16.06.2017 13:44 19,7 C 22,2 C 21,1 C 67 % 0 lf 1020,3 hPa 0,0 l/m 0 min 0 min 324 W/m 16,7 km/h (3 Bft) 95,74 %
16.06.2017 13:46 19,7 C 22,2 C 21,1 C 66 % 0 lf 1020,3 hPa 0,0 l/m 0 min 0 min 304 W/m 20,9 km/h (4 Bft) 95,74 %
16.06.2017 13:48 19,7 C 22,2 C 21,1 C 66 % 0 lf 1020,4 hPa 0,0 l/m 0 min 0 min 309 W/m 20,9 km/h (4 Bft) 93,62 %
16.06.2017 13:50 19,7 C 22,2 C 21,7 C 66 % 0 lf 1020,4 hPa 0,0 l/m 0 min 0 min 334 W/m 18,8 km/h (3 Bft) 95,74 %
16.06.2017 13:52 19,8 C 22,2 C 21,7 C 67 % 0 lf 1020,5 hPa 0,0 l/m 0 min 0 min 366 W/m 20,9 km/h (4 Bft) 96,36 %
16.06.2017 13:54 19,8 C 22,8 C 22,2 C 66 % 0 lf 1020,4 hPa 0,0 l/m 0 min 0 min 407 W/m 20,9 km/h (4 Bft) 93,62 %
16.06.2017 13:56 19,8 C 22,8 C 21,7 C 66 % 0 lf 1020,5 hPa 0,0 l/m 0 min 0 min 405 W/m 25,1 km/h (4 Bft) 95,74 %
16.06.2017 13:58 19,9 C 23,9 C 21,7 C 65 % 0 lf 1020,6 hPa 0,0 l/m 0 min 0 min 386 W/m 35,6 km/h (5 Bft) 91,49 %
16.06.2017 14:00 19,9 C 25,0 C 22,8 C 66 % 0 lf 1020,5 hPa 0,0 l/m 0 min 0 min 397 W/m 23,0 km/h (4 Bft) 95,74 %
16.06.2017 14:02 20,1 C 24,4 C 22,8 C 67 % 0 lf 1020,5 hPa 0,0 l/m 2 min 0 min 541 W/m 20,9 km/h (4 Bft) 95,65 %
16.06.2017 14:04 20,2 C 24,4 C 23,3 C 66 % 0 lf 1020,4 hPa 0,0 l/m 2 min 0 min 577 W/m 23,0 km/h (4 Bft) 93,62 %
16.06.2017 14:06 20,3 C 24,4 C 23,3 C 66 % 0 lf 1020,4 hPa 0,0 l/m 2 min 0 min 575 W/m 18,8 km/h (3 Bft) 93,62 %
16.06.2017 14:08 20,3 C 23,9 C 23,3 C 65 % 0 lf 1020,4 hPa 0,0 l/m 2 min 0 min 449 W/m 25,1 km/h (4 Bft) 95,74 %
16.06.2017 14:10 20,4 C 23,3 C 22,8 C 65 % 0 lf 1020,5 hPa 0,0 l/m 0 min 0 min 384 W/m 20,9 km/h (4 Bft) 93,62 %
16.06.2017 14:12 20,4 C 22,8 C 22,8 C 65 % 0 lf 1020,5 hPa 0,0 l/m 0 min 0 min 379 W/m 25,1 km/h (4 Bft) 93,62 %
16.06.2017 14:14 20,4 C 22,8 C 22,2 C 64 % 0 lf 1020,5 hPa 0,0 l/m 0 min 0 min 320 W/m 23,0 km/h (4 Bft) 97,83 %
16.06.2017 14:16 20,4 C 22,8 C 22,2 C 65 % 0 lf 1020,5 hPa 0,0 l/m 0 min 0 min 337 W/m 20,9 km/h (4 Bft) 97,87 %
16.06.2017 14:18 20,5 C 23,9 C 22,8 C 65 % 0 lf 1020,5 hPa 0,0 l/m 0 min 0 min 384 W/m 23,0 km/h (4 Bft) 95,74 %
16.06.2017 14:20 20,5 C 23,3 C 23,3 C 65 % 0 lf 1020,5 hPa 0,0 l/m 0 min 0 min 410 W/m 18,8 km/h (3 Bft) 97,87 %
16.06.2017 14:22 20,6 C 24,4 C 23,9 C 64 % 0 lf 1020,5 hPa 0,0 l/m 2 min 0 min 431 W/m 25,1 km/h (4 Bft) 97,87 %
16.06.2017 14:24 20,6 C 25,6 C 25,0 C 64 % 0 lf 1020,5 hPa 0,0 l/m 2 min 0 min 439 W/m 29,3 km/h (5 Bft) 100,00 %
16.06.2017 14:26 20,7 C 26,1 C 26,1 C 63 % 0 lf 1020,4 hPa 0,0 l/m 2 min 0 min 439 W/m 27,2 km/h (4 Bft) 100,00 %
16.06.2017 14:28 20,8 C 26,7 C 27,2 C 65 % 0 lf 1020,4 hPa 0,0 l/m 2 min 0 min 619 W/m 18,8 km/h (3 Bft) 97,87 %
16.06.2017 14:30 20,9 C 26,7 C 26,7 C 65 % 0 lf 1020,4 hPa 0,0 l/m 2 min 0 min 812 W/m 23,0 km/h (4 Bft) 100,00 %
16.06.2017 14:32 21,0 C 25,6 C 25,6 C 63 % 0 lf 1020,5 hPa 0,0 l/m 2 min 0 min 441 W/m 20,9 km/h (4 Bft) 100,00 %
16.06.2017 14:34 21,1 C 24,4 C 25,0 C 62 % 0 lf 1020,6 hPa 0,0 l/m 2 min 0 min 429 W/m 27,2 km/h (4 Bft) 100,00 %
16.06.2017 14:36 21,1 C 24,4 C 23,9 C 62 % 0 lf 1020,6 hPa 0,0 l/m 0 min 0 min 353 W/m 14,6 km/h (3 Bft) 100,00 %
16.06.2017 14:38 21,1 C 24,4 C 23,9 C 64 % 0 lf 1020,7 hPa 0,0 l/m 0 min 0 min 328 W/m 14,6 km/h (3 Bft) 97,83 %
16.06.2017 14:40 21,1 C 23,9 C 23,3 C 62 % 0 lf 1020,7 hPa 0,0 l/m 0 min 0 min 323 W/m 14,6 km/h (3 Bft) 95,74 %
16.06.2017 14:42 21,1 C 23,3 C 22,2 C 62 % 0 lf 1020,7 hPa 0,0 l/m 0 min 0 min 280 W/m 18,8 km/h (3 Bft) 97,87 %
16.06.2017 14:44 21,1 C 22,8 C 21,7 C 62 % 0 lf 1020,7 hPa 0,0 l/m 0 min 0 min 227 W/m 23,0 km/h (4 Bft) 95,74 %
16.06.2017 14:46 21,0 C 22,2 C 21,1 C 62 % 0 lf 1020,8 hPa 0,0 l/m 0 min 0 min 207 W/m 20,9 km/h (4 Bft) 97,87 %
16.06.2017 14:48 20,8 C 21,7 C 20,6 C 61 % 0 lf 1020,7 hPa 0,0 l/m 0 min 0 min 226 W/m 25,1 km/h (4 Bft) 97,87 %
16.06.2017 14:50 20,7 C 21,7 C 20,6 C 61 % 0 lf 1020,7 hPa 0,0 l/m 0 min 0 min 254 W/m 23,0 km/h (4 Bft) 97,83 %
16.06.2017 14:52 20,7 C 22,2 C 21,7 C 62 % 0 lf 1020,6 hPa 0,0 l/m 0 min 0 min 334 W/m 23,0 km/h (4 Bft) 97,87 %
16.06.2017 14:54 20,7 C 23,9 C 23,9 C 63 % 0 lf 1020,7 hPa 0,0 l/m 0 min 0 min 365 W/m 29,3 km/h (5 Bft) 97,87 %
16.06.2017 14:56 20,7 C 23,9 C 24,4 C 63 % 0 lf 1020,7 hPa 0,0 l/m 2 min 0 min 455 W/m 25,1 km/h (4 Bft) 97,87 %
16.06.2017 14:58 20,7 C 25,0 C 25,0 C 64 % 0 lf 1020,7 hPa 0,0 l/m 2 min 0 min 474 W/m 18,8 km/h (3 Bft) 95,74 %
16.06.2017 15:00 20,8 C 24,4 C 24,4 C 63 % 0 lf 1020,7 hPa 0,0 l/m 2 min 0 min 455 W/m 25,1 km/h (4 Bft) 97,83 %
16.06.2017 15:02 20,8 C 23,9 C 23,9 C 62 % 0 lf 1020,7 hPa 0,0 l/m 2 min 0 min 453 W/m 23,0 km/h (4 Bft) 95,74 %
16.06.2017 15:04 20,9 C 23,9 C 23,3 C 61 % 0 lf 1020,7 hPa 0,0 l/m 0 min 0 min 383 W/m 27,2 km/h (4 Bft) 97,87 %
16.06.2017 15:06 20,9 C 23,3 C 22,8 C 62 % 0 lf 1020,7 hPa 0,0 l/m 0 min 0 min 336 W/m 25,1 km/h (4 Bft) 95,74 %
16.06.2017 15:08 20,9 C 23,3 C 22,2 C 61 % 0 lf 1020,8 hPa 0,0 l/m 0 min 0 min 292 W/m 31,4 km/h (5 Bft) 95,74 %
16.06.2017 15:10 20,8 C 22,8 C 21,7 C 61 % 0 lf 1020,8 hPa 0,0 l/m 0 min 0 min 254 W/m 20,9 km/h (4 Bft) 93,62 %
16.06.2017 15:12 20,8 C 22,8 C 21,7 C 61 % 0 lf 1020,8 hPa 0,0 l/m 0 min 0 min 241 W/m 29,3 km/h (5 Bft) 93,48 %
16.06.2017 15:14 20,8 C 22,2 C 21,1 C 61 % 0 lf 1020,8 hPa 0,0 l/m 0 min 0 min 258 W/m 31,4 km/h (5 Bft) 97,87 %
16.06.2017 15:16 20,7 C 21,7 C 21,1 C 60 % 0 lf 1020,8 hPa 0,0 l/m 0 min 0 min 248 W/m 33,5 km/h (5 Bft) 95,74 %
16.06.2017 15:18 20,6 C 21,7 C 20,6 C 60 % 0 lf 1020,9 hPa 0,0 l/m 0 min 0 min 226 W/m 23,0 km/h (4 Bft) 95,74 %
16.06.2017 15:20 20,5 C 21,1 C 20,6 C 60 % 0 lf 1021,0 hPa 0,0 l/m 0 min 0 min 211 W/m 37,7 km/h (5 Bft) 95,74 %
16.06.2017 15:23 20,4 C 21,1 C 20,6 C 60 % 0 lf 1021,0 hPa 0,0 l/m 0 min 0 min 236 W/m 31,4 km/h (5 Bft) 94,29 %
16.06.2017 15:24 20,4 C 21,1 C 21,1 C 61 % 0 lf 1021,0 hPa 0,0 l/m 0 min 0 min 222 W/m 23,0 km/h (4 Bft) 95,65 %
16.06.2017 15:28 20,3 C 21,1 C 20,6 C 61 % 0 lf 1021,0 hPa 0,0 l/m 0 min 0 min 218 W/m 27,2 km/h (4 Bft) 93,62 %
16.06.2017 15:29 20,3 C 21,1 C 20,6 C 62 % 0 lf 1021,1 hPa 0,0 l/m 0 min 0 min 229 W/m 25,1 km/h (4 Bft) 100,00 %
16.06.2017 15:30 20,2 C 21,1 C 20,6 C 61 % 0 lf 1021,1 hPa 0,0 l/m 0 min 0 min 230 W/m 27,2 km/h (4 Bft) 96,49 %
16.06.2017 15:35 20,2 C 21,7 C 21,7 C 61 % 0 lf 1021,1 hPa 0,0 l/m 0 min 0 min 348 W/m 25,1 km/h (4 Bft) 98,25 %
16.06.2017 15:40 20,2 C 22,8 C 22,2 C 63 % 0 lf 1021,1 hPa 0,0 l/m 0 min 0 min 329 W/m 23,0 km/h (4 Bft) 99,12 %
16.06.2017 15:45 20,3 C 22,8 C 21,7 C 62 % 0 lf 1021,1 hPa 0,0 l/m 0 min 0 min 312 W/m 29,3 km/h (5 Bft) 100,00 %
16.06.2017 15:50 20,2 C 21,7 C 21,1 C 61 % 0 lf 1021,3 hPa 0,0 l/m 0 min 0 min 280 W/m 31,4 km/h (5 Bft) 98,25 %
16.06.2017 15:55 20,2 C 22,2 C 21,7 C 60 % 0 lf 1021,2 hPa 0,0 l/m 0 min 0 min 374 W/m 31,4 km/h (5 Bft) 98,25 %
16.06.2017 16:00 20,1 C 22,2 C 21,7 C 60 % 0 lf 1021,2 hPa 0,0 l/m 0 min 0 min 342 W/m 35,6 km/h (5 Bft) 97,37 %
16.06.2017 16:05 20,1 C 22,2 C 21,1 C 60 % 0 lf 1021,4 hPa 0,0 l/m 0 min 0 min 299 W/m 33,5 km/h (5 Bft) 94,74 %
16.06.2017 16:10 20,1 C 22,2 C 21,1 C 62 % 0 lf 1021,3 hPa 0,0 l/m 0 min 0 min 270 W/m 23,0 km/h (4 Bft) 96,49 %
16.06.2017 16:15 20,0 C 21,7 C 21,1 C 60 % 0 lf 1021,3 hPa 0,0 l/m 0 min 0 min 285 W/m 27,2 km/h (4 Bft) 93,86 %
16.06.2017 16:20 19,9 C 21,1 C 20,6 C 60 % 0 lf 1021,3 hPa 0,0 l/m 0 min 0 min 238 W/m 29,3 km/h (5 Bft) 95,61 %
16.06.2017 16:25 19,9 C 21,1 C 20,6 C 60 % 0 lf 1021,4 hPa 0,0 l/m 0 min 0 min 247 W/m 35,6 km/h (5 Bft) 97,37 %
16.06.2017 16:30 19,8 C 21,7 C 21,1 C 61 % 0 lf 1021,3 hPa 0,0 l/m 0 min 0 min 337 W/m 33,5 km/h (5 Bft) 97,37 %
16.06.2017 16:35 19,9 C 21,7 C 21,7 C 62 % 0 lf 1021,4 hPa 0,0 l/m 0 min 0 min 305 W/m 33,5 km/h (5 Bft) 98,25 %
16.06.2017 16:40 19,9 C 21,7 C 21,7 C 61 % 0 lf 1021,4 hPa 0,0 l/m 0 min 0 min 296 W/m 31,4 km/h (5 Bft) 99,12 %
16.06.2017 16:45 19,9 C 21,7 C 21,7 C 61 % 0 lf 1021,6 hPa 0,0 l/m 0 min 0 min 315 W/m 29,3 km/h (5 Bft) 100,00 %
16.06.2017 16:50 20,0 C 22,2 C 21,7 C 62 % 0 lf 1021,6 hPa 0,0 l/m 5 min 0 min 340 W/m 25,1 km/h (4 Bft) 100,00 %
16.06.2017 16:55 20,1 C 22,2 C 21,1 C 61 % 0 lf 1021,5 hPa 0,0 l/m 0 min 0 min 307 W/m 31,4 km/h (5 Bft) 100,00 %
16.06.2017 17:00 20,1 C 21,7 C 21,7 C 61 % 0 lf 1021,5 hPa 0,0 l/m 0 min 0 min 281 W/m 25,1 km/h (4 Bft) 100,00 %
16.06.2017 17:05 20,1 C 21,7 C 21,7 C 61 % 0 lf 1021,7 hPa 0,0 l/m 0 min 0 min 293 W/m 23,0 km/h (4 Bft) 100,00 %
16.06.2017 17:10 20,1 C 21,7 C 21,7 C 60 % 0 lf 1021,7 hPa 0,0 l/m 0 min 0 min 286 W/m 35,6 km/h (5 Bft) 100,00 %
16.06.2017 17:12 20,1 C 21,7 C 21,7 C 60 % 0 lf 1021,6 hPa 0,0 l/m 0 min 0 min 288 W/m 27,2 km/h (4 Bft) 94,29 %
16.06.2017 17:14 20,1 C 21,1 C 21,1 C 60 % 0 lf 1021,6 hPa 0,0 l/m 0 min 0 min 263 W/m 39,7 km/h (6 Bft) 100,00 %
16.06.2017 17:16 20,0 C 21,1 C 20,6 C 59 % 0 lf 1021,7 hPa 0,0 l/m 0 min 0 min 249 W/m 43,9 km/h (6 Bft) 100,00 %
16.06.2017 17:18 19,9 C 20,6 C 20,6 C 59 % 0 lf 1021,7 hPa 0,0 l/m 0 min 0 min 276 W/m 33,5 km/h (5 Bft) 100,00 %
16.06.2017 17:20 19,9 C 20,6 C 21,1 C 60 % 0 lf 1021,8 hPa 0,0 l/m 0 min 0 min 288 W/m 25,1 km/h (4 Bft) 100,00 %
16.06.2017 17:23 19,8 C 21,1 C 21,1 C 60 % 0 lf 1021,9 hPa 0,0 l/m 0 min 0 min 285 W/m 29,3 km/h (5 Bft) 96,34 %
16.06.2017 17:24 19,8 C 21,1 C 21,1 C 60 % 0 lf 1021,9 hPa 0,0 l/m 0 min 0 min 273 W/m 23,0 km/h (4 Bft) 100,00 %
16.06.2017 17:28 19,8 C 20,6 C 20,6 C 60 % 0 lf 1021,8 hPa 0,0 l/m 0 min 0 min 236 W/m 29,3 km/h (5 Bft) 100,00 %
16.06.2017 17:29 19,8 C 20,6 C 20,6 C 60 % 0 lf 1021,8 hPa 0,0 l/m 0 min 0 min 214 W/m 23,0 km/h (4 Bft) 100,00 %
16.06.2017 17:30 19,7 C 20,6 C 20,6 C 60 % 0 lf 1021,8 hPa 0,0 l/m 0 min 0 min 219 W/m 31,4 km/h (5 Bft) 100,00 %
16.06.2017 17:36 19,7 C 20,6 C 20,0 C 60 % 0 lf 1021,8 hPa 0,0 l/m 0 min 0 min 197 W/m 25,1 km/h (4 Bft) 100,00 %
16.06.2017 17:38 19,6 C 20,6 C 20,0 C 62 % 0 lf 1021,8 hPa 0,0 l/m 0 min 0 min 216 W/m 16,7 km/h (3 Bft) 100,00 %
16.06.2017 17:40 19,6 C 20,6 C 20,6 C 61 % 0 lf 1021,8 hPa 0,0 l/m 0 min 0 min 246 W/m 29,3 km/h (5 Bft) 100,00 %
16.06.2017 17:42 19,6 C 20,6 C 20,0 C 61 % 0 lf 1022,0 hPa 0,0 l/m 0 min 0 min 240 W/m 31,4 km/h (5 Bft) 100,00 %
16.06.2017 17:44 19,6 C 20,6 C 20,6 C 61 % 0 lf 1022,0 hPa 0,0 l/m 0 min 0 min 239 W/m 16,7 km/h (3 Bft) 100,00 %
16.06.2017 17:46 19,6 C 20,6 C 20,6 C 62 % 0 lf 1021,9 hPa 0,0 l/m 0 min 0 min 236 W/m 14,6 km/h (3 Bft) 95,65 %
16.06.2017 17:48 19,6 C 21,1 C 20,6 C 62 % 0 lf 1021,9 hPa 0,0 l/m 0 min 0 min 236 W/m 33,5 km/h (5 Bft) 95,74 %
16.06.2017 17:50 19,5 C 20,6 C 20,0 C 61 % 0 lf 1022,0 hPa 0,0 l/m 0 min 0 min 215 W/m 31,4 km/h (5 Bft) 97,87 %
16.06.2017 17:52 19,5 C 20,6 C 20,0 C 61 % 0 lf 1022,0 hPa 0,0 l/m 0 min 0 min 190 W/m 16,7 km/h (3 Bft) 94,34 %
16.06.2017 17:54 19,4 C 20,0 C 20,0 C 61 % 0 lf 1022,0 hPa 0,0 l/m 0 min 0 min 177 W/m 18,8 km/h (3 Bft) 100,00 %
16.06.2017 17:56 19,4 C 20,6 C 19,4 C 62 % 0 lf 1022,0 hPa 0,0 l/m 0 min 0 min 148 W/m 20,9 km/h (4 Bft) 97,37 %
16.06.2017 17:58 19,4 C 20,0 C 19,4 C 62 % 0 lf 1022,0 hPa 0,0 l/m 0 min 0 min 118 W/m 16,7 km/h (3 Bft) 95,31 %
16.06.2017 18:00 19,4 C 20,0 C 18,9 C 62 % 0 lf 1022,1 hPa 0,0 l/m 0 min 0 min 107 W/m 20,9 km/h (4 Bft) 95,74 %
16.06.2017 18:02 19,3 C 19,4 C 18,9 C 62 % 0 lf 1022,0 hPa 0,0 l/m 0 min 0 min 85 W/m 18,8 km/h (3 Bft) 95,74 %
16.06.2017 18:04 19,3 C 19,4 C 18,3 C 62 % 0 lf 1022,0 hPa 0,0 l/m 0 min 0 min 79 W/m 20,9 km/h (4 Bft) 92,11 %
16.06.2017 18:06 19,2 C 18,9 C 18,3 C 63 % 0 lf 1022,1 hPa 0,0 l/m 0 min 0 min 89 W/m 25,1 km/h (4 Bft) 93,62 %
16.06.2017 18:08 19,2 C 18,9 C 18,3 C 62 % 0 lf 1022,2 hPa 0,0 l/m 0 min 0 min 108 W/m 31,4 km/h (5 Bft) 95,83 %
16.06.2017 18:10 19,1 C 18,9 C 18,3 C 63 % 0 lf 1022,2 hPa 0,0 l/m 0 min 0 min 146 W/m 18,8 km/h (3 Bft) 95,83 %
16.06.2017 18:12 19,0 C 19,4 C 18,3 C 63 % 0 lf 1022,2 hPa 0,0 l/m 0 min 0 min 173 W/m 27,2 km/h (4 Bft) 93,62 %
16.06.2017 18:14 18,9 C 19,4 C 18,3 C 63 % 0 lf 1022,2 hPa 0,0 l/m 0 min 0 min 176 W/m 23,0 km/h (4 Bft) 95,74 %
16.06.2017 18:16 18,9 C 19,4 C 18,9 C 63 % 0 lf 1022,2 hPa 0,0 l/m 0 min 0 min 182 W/m 12,6 km/h (3 Bft) 95,74 %
16.06.2017 18:18 18,9 C 20,0 C 18,9 C 64 % 0 lf 1022,2 hPa 0,0 l/m 0 min 0 min 191 W/m 14,6 km/h (3 Bft) 94,44 %
16.06.2017 18:20 18,9 C 20,0 C 18,9 C 64 % 0 lf 1022,3 hPa 0,0 l/m 0 min 0 min 191 W/m 20,9 km/h (4 Bft) 97,37 %
16.06.2017 18:22 18,8 C 20,0 C 18,9 C 64 % 0 lf 1022,3 hPa 0,0 l/m 0 min 0 min 184 W/m 27,2 km/h (4 Bft) 91,30 %
16.06.2017 18:24 18,8 C 20,0 C 18,9 C 64 % 0 lf 1022,4 hPa 0,0 l/m 0 min 0 min 186 W/m 27,2 km/h (4 Bft) 95,74 %
16.06.2017 18:26 18,8 C 20,0 C 18,9 C 64 % 0 lf 1022,4 hPa 0,0 l/m 0 min 0 min 178 W/m 18,8 km/h (3 Bft) 95,74 %
16.06.2017 18:28 18,8 C 20,0 C 18,9 C 65 % 0 lf 1022,3 hPa 0,0 l/m 0 min 0 min 158 W/m 25,1 km/h (4 Bft) 95,74 %
16.06.2017 18:30 18,8 C 19,4 C 18,3 C 64 % 0 lf 1022,4 hPa 0,0 l/m 0 min 0 min 140 W/m 23,0 km/h (4 Bft) 95,74 %
16.06.2017 18:32 18,8 C 19,4 C 18,3 C 65 % 0 lf 1022,3 hPa 0,0 l/m 0 min 0 min 125 W/m 18,8 km/h (3 Bft) 93,88 %
16.06.2017 18:34 18,7 C 19,4 C 18,3 C 65 % 0 lf 1022,4 hPa 0,0 l/m 0 min 0 min 139 W/m 10,5 km/h (2 Bft) 91,30 %
16.06.2017 18:36 18,7 C 19,4 C 18,3 C 65 % 0 lf 1022,3 hPa 0,0 l/m 0 min 0 min 199 W/m 25,1 km/h (4 Bft) 97,87 %
16.06.2017 18:38 18,7 C 18,9 C 18,3 C 64 % 0 lf 1022,4 hPa 0,0 l/m 0 min 0 min 186 W/m 23,0 km/h (4 Bft) 95,74 %
16.06.2017 18:40 18,6 C 18,9 C 18,3 C 63 % 0 lf 1022,4 hPa 0,0 l/m 0 min 0 min 179 W/m 23,0 km/h (4 Bft) 91,49 %
16.06.2017 18:42 18,6 C 18,9 C 18,3 C 64 % 0 lf 1022,4 hPa 0,0 l/m 0 min 0 min 143 W/m 20,9 km/h (4 Bft) 92,45 %
16.06.2017 18:44 18,6 C 18,9 C 18,3 C 64 % 0 lf 1022,3 hPa 0,0 l/m 0 min 0 min 120 W/m 23,0 km/h (4 Bft) 92,31 %
16.06.2017 18:46 18,5 C 18,9 C 18,3 C 64 % 0 lf 1022,4 hPa 0,0 l/m 0 min 0 min 127 W/m 23,0 km/h (4 Bft) 93,48 %
16.06.2017 18:48 18,5 C 18,9 C 18,3 C 64 % 0 lf 1022,5 hPa 0,0 l/m 0 min 0 min 145 W/m 23,0 km/h (4 Bft) 93,62 %
16.06.2017 18:50 18,4 C 18,9 C 18,3 C 65 % 0 lf 1022,5 hPa 0,0 l/m 0 min 0 min 177 W/m 18,8 km/h (3 Bft) 93,88 %
16.06.2017 18:52 18,4 C 18,9 C 18,3 C 64 % 0 lf 1022,6 hPa 0,0 l/m 0 min 0 min 183 W/m 25,1 km/h (4 Bft) 93,62 %
16.06.2017 18:54 18,4 C 18,9 C 18,3 C 64 % 0 lf 1022,5 hPa 0,0 l/m 0 min 0 min 150 W/m 23,0 km/h (4 Bft) 95,74 %
16.06.2017 18:56 18,4 C 18,9 C 18,3 C 64 % 0 lf 1022,6 hPa 0,0 l/m 0 min 0 min 135 W/m 18,8 km/h (3 Bft) 91,30 %
16.06.2017 18:58 18,3 C 18,9 C 18,3 C 64 % 0 lf 1022,6 hPa 0,0 l/m 0 min 0 min 151 W/m 18,8 km/h (3 Bft) 95,74 %
16.06.2017 19:00 18,3 C 18,9 C 18,3 C 64 % 0 lf 1022,6 hPa 0,0 l/m 0 min 0 min 172 W/m 33,5 km/h (5 Bft) 95,74 %
16.06.2017 19:02 18,3 C 18,9 C 18,3 C 64 % 0 lf 1022,6 hPa 0,0 l/m 0 min 0 min 175 W/m 20,9 km/h (4 Bft) 93,62 %
16.06.2017 19:04 18,3 C 18,9 C 18,3 C 64 % 0 lf 1022,5 hPa 0,0 l/m 0 min 0 min 183 W/m 20,9 km/h (4 Bft) 95,74 %
16.06.2017 19:06 18,3 C 18,9 C 18,3 C 64 % 0 lf 1022,5 hPa 0,0 l/m 2 min 0 min 216 W/m 25,1 km/h (4 Bft) 94,34 %
16.06.2017 19:08 18,2 C 18,9 C 18,3 C 64 % 0 lf 1022,6 hPa 0,0 l/m 2 min 0 min 267 W/m 23,0 km/h (4 Bft) 95,74 %
16.06.2017 19:10 18,2 C 19,4 C 18,9 C 64 % 0 lf 1022,6 hPa 0,0 l/m 2 min 0 min 225 W/m 25,1 km/h (4 Bft) 93,62 %
16.06.2017 19:12 18,2 C 19,4 C 18,9 C 65 % 0 lf 1022,6 hPa 0,0 l/m 2 min 0 min 219 W/m 18,8 km/h (3 Bft) 92,11 %
16.06.2017 19:14 18,2 C 19,4 C 18,9 C 64 % 0 lf 1022,6 hPa 0,0 l/m 2 min 0 min 219 W/m 16,7 km/h (3 Bft) 93,88 %
16.06.2017 19:16 18,2 C 19,4 C 18,9 C 65 % 0 lf 1022,6 hPa 0,0 l/m 2 min 0 min 229 W/m 23,0 km/h (4 Bft) 95,74 %
16.06.2017 19:18 18,2 C 19,4 C 18,3 C 64 % 0 lf 1022,6 hPa 0,0 l/m 2 min 0 min 238 W/m 25,1 km/h (4 Bft) 95,74 %
16.06.2017 19:20 18,3 C 19,4 C 18,3 C 64 % 0 lf 1022,7 hPa 0,0 l/m 2 min 0 min 247 W/m 25,1 km/h (4 Bft) 93,48 %
16.06.2017 19:22 18,3 C 19,4 C 18,3 C 64 % 0 lf 1022,6 hPa 0,0 l/m 2 min 0 min 210 W/m 12,6 km/h (3 Bft) 91,49 %
16.06.2017 19:24 18,3 C 19,4 C 18,9 C 64 % 0 lf 1022,6 hPa 0,0 l/m 2 min 0 min 210 W/m 14,6 km/h (3 Bft) 97,87 %
16.06.2017 19:26 18,3 C 19,4 C 18,3 C 64 % 0 lf 1022,6 hPa 0,0 l/m 2 min 0 min 193 W/m 20,9 km/h (4 Bft) 95,74 %
16.06.2017 19:28 18,3 C 19,4 C 18,3 C 65 % 0 lf 1022,7 hPa 0,0 l/m 2 min 0 min 225 W/m 14,6 km/h (3 Bft) 95,74 %
16.06.2017 19:30 18,3 C 19,4 C 18,9 C 65 % 0 lf 1022,6 hPa 0,0 l/m 2 min 0 min 221 W/m 12,6 km/h (3 Bft) 97,87 %
16.06.2017 19:32 18,3 C 19,4 C 18,9 C 65 % 0 lf 1022,7 hPa 0,0 l/m 2 min 0 min 236 W/m 25,1 km/h (4 Bft) 95,65 %
16.06.2017 19:34 18,3 C 19,4 C 18,9 C 64 % 0 lf 1022,7 hPa 0,0 l/m 2 min 0 min 226 W/m 16,7 km/h (3 Bft) 100,00 %
16.06.2017 19:36 18,3 C 19,4 C 18,9 C 64 % 0 lf 1022,7 hPa 0,0 l/m 2 min 0 min 176 W/m 14,6 km/h (3 Bft) 100,00 %
16.06.2017 19:38 18,3 C 19,4 C 18,3 C 65 % 0 lf 1022,7 hPa 0,0 l/m 2 min 0 min 181 W/m 20,9 km/h (4 Bft) 100,00 %
16.06.2017 19:40 18,4 C 19,4 C 18,3 C 66 % 0 lf 1022,7 hPa 0,0 l/m 2 min 0 min 191 W/m 20,9 km/h (4 Bft) 100,00 %
16.06.2017 19:42 18,4 C 19,4 C 18,3 C 66 % 0 lf 1022,7 hPa 0,0 l/m 2 min 0 min 152 W/m 10,5 km/h (2 Bft) 97,87 %
16.06.2017 19:44 18,4 C 19,4 C 18,3 C 65 % 0 lf 1022,8 hPa 0,0 l/m 2 min 0 min 148 W/m 23,0 km/h (4 Bft) 97,83 %
16.06.2017 19:46 18,4 C 18,9 C 18,3 C 65 % 0 lf 1022,7 hPa 0,0 l/m 2 min 0 min 191 W/m 27,2 km/h (4 Bft) 95,74 %
16.06.2017 19:48 18,4 C 18,9 C 18,3 C 64 % 0 lf 1022,8 hPa 0,0 l/m 2 min 0 min 184 W/m 25,1 km/h (4 Bft) 97,87 %
16.06.2017 19:50 18,4 C 18,9 C 18,3 C 64 % 0 lf 1022,7 hPa 0,0 l/m 2 min 0 min 172 W/m 18,8 km/h (3 Bft) 100,00 %
16.06.2017 19:52 18,3 C 18,9 C 18,3 C 65 % 0 lf 1022,7 hPa 0,0 l/m 2 min 0 min 148 W/m 23,0 km/h (4 Bft) 100,00 %
16.06.2017 19:54 18,3 C 18,9 C 17,8 C 65 % 0 lf 1022,8 hPa 0,0 l/m 2 min 0 min 132 W/m 20,9 km/h (4 Bft) 96,23 %
16.06.2017 19:56 18,3 C 18,9 C 17,8 C 65 % 0 lf 1022,8 hPa 0,0 l/m 2 min 0 min 134 W/m 25,1 km/h (4 Bft) 97,87 %
16.06.2017 19:58 18,3 C 18,9 C 17,8 C 65 % 0 lf 1022,9 hPa 0,0 l/m 0 min 0 min 120 W/m 25,1 km/h (4 Bft) 97,87 %
16.06.2017 20:00 18,3 C 18,3 C 17,8 C 64 % 0 lf 1022,9 hPa 0,0 l/m 2 min 0 min 129 W/m 20,9 km/h (4 Bft) 100,00 %
16.06.2017 20:02 18,2 C 18,9 C 17,8 C 65 % 0 lf 1022,9 hPa 0,0 l/m 2 min 0 min 129 W/m 16,7 km/h (3 Bft) 100,00 %
16.06.2017 20:04 18,2 C 18,3 C 17,8 C 65 % 0 lf 1022,9 hPa 0,0 l/m 2 min 0 min 116 W/m 18,8 km/h (3 Bft) 97,87 %
16.06.2017 20:06 18,2 C 18,3 C 17,8 C 65 % 0 lf 1023,0 hPa 0,0 l/m 2 min 0 min 117 W/m 18,8 km/h (3 Bft) 97,92 %
16.06.2017 20:08 18,2 C 18,3 C 17,8 C 65 % 0 lf 1022,9 hPa 0,0 l/m 0 min 0 min 108 W/m 20,9 km/h (4 Bft) 97,87 %
16.06.2017 20:10 18,1 C 18,3 C 17,8 C 65 % 0 lf 1023,0 hPa 0,0 l/m 0 min 0 min 96 W/m 12,6 km/h (3 Bft) 97,87 %
16.06.2017 20:12 18,1 C 18,3 C 17,2 C 65 % 0 lf 1023,0 hPa 0,0 l/m 2 min 0 min 105 W/m 20,9 km/h (4 Bft) 95,74 %
16.06.2017 20:14 18,1 C 18,3 C 17,2 C 65 % 0 lf 1023,0 hPa 0,0 l/m 0 min 0 min 101 W/m 12,6 km/h (3 Bft) 97,87 %
16.06.2017 20:16 18,1 C 18,3 C 17,2 C 66 % 0 lf 1022,9 hPa 0,0 l/m 2 min 0 min 100 W/m 18,8 km/h (3 Bft) 95,74 %
16.06.2017 20:18 18,1 C 18,3 C 17,2 C 66 % 0 lf 1023,0 hPa 0,0 l/m 2 min 0 min 109 W/m 12,6 km/h (3 Bft) 95,65 %
16.06.2017 20:20 18,1 C 18,3 C 17,2 C 66 % 0 lf 1022,9 hPa 0,0 l/m 2 min 0 min 108 W/m 12,6 km/h (3 Bft) 95,74 %
16.06.2017 20:22 18,0 C 18,3 C 17,2 C 66 % 0 lf 1023,0 hPa 0,0 l/m 2 min 0 min 115 W/m 20,9 km/h (4 Bft) 97,87 %
16.06.2017 20:24 17,9 C 18,3 C 17,2 C 65 % 0 lf 1023,0 hPa 0,0 l/m 2 min 0 min 115 W/m 25,1 km/h (4 Bft) 95,74 %
16.06.2017 20:26 17,9 C 18,3 C 17,2 C 66 % 0 lf 1023,0 hPa 0,0 l/m 2 min 0 min 110 W/m 25,1 km/h (4 Bft) 95,74 %
16.06.2017 20:28 17,9 C 17,8 C 17,2 C 65 % 0 lf 1023,0 hPa 0,0 l/m 2 min 0 min 96 W/m 23,0 km/h (4 Bft) 97,87 %
16.06.2017 20:30 17,9 C 17,8 C 16,7 C 66 % 0 lf 1023,0 hPa 0,0 l/m 2 min 0 min 89 W/m 14,6 km/h (3 Bft) 97,83 %
16.06.2017 20:32 17,8 C 17,8 C 16,7 C 66 % 0 lf 1023,1 hPa 0,0 l/m 2 min 0 min 118 W/m 20,9 km/h (4 Bft) 97,87 %
16.06.2017 20:34 17,8 C 17,8 C 16,7 C 66 % 0 lf 1023,1 hPa 0,0 l/m 2 min 0 min 87 W/m 16,7 km/h (3 Bft) 97,87 %
16.06.2017 20:36 17,8 C 17,8 C 16,7 C 66 % 0 lf 1023,2 hPa 0,0 l/m 2 min 0 min 87 W/m 23,0 km/h (4 Bft) 94,44 %
16.06.2017 20:38 17,8 C 17,8 C 16,7 C 66 % 0 lf 1023,2 hPa 0,0 l/m 2 min 0 min 86 W/m 16,7 km/h (3 Bft) 93,62 %
16.06.2017 20:40 17,7 C 17,8 C 16,7 C 66 % 0 lf 1023,2 hPa 0,0 l/m 2 min 0 min 84 W/m 14,6 km/h (3 Bft) 100,00 %
16.06.2017 20:42 17,7 C 17,8 C 16,7 C 66 % 0 lf 1023,2 hPa 0,0 l/m 0 min 0 min 69 W/m 12,6 km/h (3 Bft) 100,00 %
16.06.2017 20:44 17,7 C 17,8 C 16,7 C 67 % 0 lf 1023,2 hPa 0,0 l/m 0 min 0 min 62 W/m 10,5 km/h (2 Bft) 100,00 %
16.06.2017 20:46 17,7 C 17,8 C 16,7 C 67 % 0 lf 1023,2 hPa 0,0 l/m 0 min 0 min 61 W/m 16,7 km/h (3 Bft) 97,87 %
16.06.2017 20:48 17,7 C 17,8 C 16,7 C 67 % 0 lf 1023,2 hPa 0,0 l/m 0 min 0 min 61 W/m 18,8 km/h (3 Bft) 100,00 %
16.06.2017 20:50 17,6 C 17,8 C 16,7 C 67 % 0 lf 1023,3 hPa 0,0 l/m 0 min 0 min 58 W/m 23,0 km/h (4 Bft) 97,87 %
16.06.2017 20:52 17,6 C 17,8 C 16,7 C 67 % 0 lf 1023,3 hPa 0,0 l/m 0 min 0 min 52 W/m 23,0 km/h (4 Bft) 98,21 %
16.06.2017 20:54 17,6 C 17,2 C 16,1 C 66 % 0 lf 1023,3 hPa 0,0 l/m 0 min 0 min 47 W/m 20,9 km/h (4 Bft) 100,00 %
16.06.2017 20:56 17,5 C 17,2 C 16,7 C 66 % 0 lf 1023,3 hPa 0,0 l/m 0 min 0 min 48 W/m 16,7 km/h (3 Bft) 100,00 %
16.06.2017 20:58 17,5 C 17,2 C 16,1 C 66 % 0 lf 1023,3 hPa 0,0 l/m 0 min 0 min 45 W/m 14,6 km/h (3 Bft) 100,00 %
16.06.2017 21:00 17,5 C 17,2 C 16,1 C 66 % 0 lf 1023,4 hPa 0,0 l/m 0 min 0 min 43 W/m 14,6 km/h (3 Bft) 96,55 %
16.06.2017 21:02 17,4 C 17,2 C 16,1 C 66 % 0 lf 1023,5 hPa 0,0 l/m 0 min 0 min 41 W/m 20,9 km/h (4 Bft) 100,00 %
16.06.2017 21:04 17,4 C 17,2 C 16,1 C 66 % 0 lf 1023,5 hPa 0,0 l/m 0 min 0 min 37 W/m 16,7 km/h (3 Bft) 97,83 %
16.06.2017 21:06 17,4 C 17,2 C 16,1 C 67 % 0 lf 1023,5 hPa 0,0 l/m 0 min 0 min 34 W/m 16,7 km/h (3 Bft) 100,00 %
16.06.2017 21:08 17,4 C 17,2 C 16,1 C 67 % 0 lf 1023,5 hPa 0,0 l/m 0 min 0 min 33 W/m 12,6 km/h (3 Bft) 97,87 %
16.06.2017 21:10 17,4 C 17,2 C 16,1 C 67 % 0 lf 1023,5 hPa 0,0 l/m 0 min 0 min 33 W/m 12,6 km/h (3 Bft) 97,87 %
16.06.2017 21:12 17,3 C 17,2 C 16,1 C 67 % 0 lf 1023,5 hPa 0,0 l/m 0 min 0 min 33 W/m 16,7 km/h (3 Bft) 100,00 %
16.06.2017 21:14 17,3 C 17,2 C 16,1 C 68 % 0 lf 1023,5 hPa 0,0 l/m 0 min 0 min 31 W/m 10,5 km/h (2 Bft) 100,00 %
16.06.2017 21:16 17,3 C 17,2 C 16,1 C 68 % 0 lf 1023,6 hPa 0,0 l/m 2 min 0 min 32 W/m 12,6 km/h (3 Bft) 97,87 %
16.06.2017 21:18 17,3 C 17,2 C 16,1 C 68 % 0 lf 1023,6 hPa 0,0 l/m 2 min 0 min 29 W/m 10,5 km/h (2 Bft) 95,65 %
16.06.2017 21:20 17,3 C 16,7 C 16,1 C 69 % 0 lf 1023,6 hPa 0,0 l/m 2 min 0 min 29 W/m 12,6 km/h (3 Bft) 95,74 %
16.06.2017 21:22 17,2 C 16,7 C 16,1 C 69 % 0 lf 1023,6 hPa 0,0 l/m 2 min 0 min 30 W/m 8,4 km/h (2 Bft) 95,74 %
16.06.2017 21:24 17,2 C 16,7 C 16,1 C 69 % 0 lf 1023,7 hPa 0,0 l/m 2 min 0 min 31 W/m 10,5 km/h (2 Bft) 93,62 %
16.06.2017 21:26 17,2 C 16,7 C 16,1 C 69 % 0 lf 1023,7 hPa 0,0 l/m 2 min 0 min 33 W/m 12,6 km/h (3 Bft) 95,74 %
16.06.2017 21:28 17,2 C 16,7 C 16,1 C 69 % 0 lf 1023,7 hPa 0,0 l/m 2 min 0 min 34 W/m 12,6 km/h (3 Bft) 87,23 %
16.06.2017 21:30 17,2 C 16,7 C 16,1 C 69 % 0 lf 1023,7 hPa 0,0 l/m 2 min 0 min 34 W/m 12,6 km/h (3 Bft) 93,48 %
16.06.2017 21:32 17,2 C 16,7 C 15,6 C 69 % 0 lf 1023,6 hPa 0,0 l/m 2 min 0 min 31 W/m 16,7 km/h (3 Bft) 95,74 %
16.06.2017 21:34 17,1 C 16,7 C 15,6 C 69 % 0 lf 1023,7 hPa 0,0 l/m 2 min 0 min 28 W/m 16,7 km/h (3 Bft) 93,62 %
16.06.2017 21:36 17,1 C 16,7 C 15,6 C 69 % 0 lf 1023,7 hPa 0,0 l/m 2 min 0 min 26 W/m 18,8 km/h (3 Bft) 91,49 %
16.06.2017 21:38 17,1 C 16,7 C 15,0 C 68 % 0 lf 1023,7 hPa 0,0 l/m 0 min 0 min 16 W/m 18,8 km/h (3 Bft) 95,74 %
16.06.2017 21:40 17,0 C 16,7 C 15,0 C 67 % 0 lf 1023,7 hPa 0,0 l/m 0 min 0 min 12 W/m 12,6 km/h (3 Bft) 93,62 %
16.06.2017 21:42 16,9 C 16,7 C 15,0 C 67 % 0 lf 1023,7 hPa 0,0 l/m 0 min 0 min 7 W/m 12,6 km/h (3 Bft) 95,65 %
16.06.2017 21:44 16,9 C 16,1 C 15,0 C 67 % 0 lf 1023,7 hPa 0,0 l/m 0 min 0 min 3 W/m 14,6 km/h (3 Bft) 93,62 %
16.06.2017 21:46 16,9 C 16,1 C 15,0 C 67 % 0 lf 1023,8 hPa 0,0 l/m 0 min 0 min 21 W/m 14,6 km/h (3 Bft) 87,23 %
16.06.2017 21:48 16,8 C 16,1 C 15,0 C 67 % 0 lf 1023,8 hPa 0,0 l/m 0 min 0 min 20 W/m 10,5 km/h (2 Bft) 93,62 %
16.06.2017 21:50 16,8 C 16,1 C 14,4 C 67 % 0 lf 1023,8 hPa 0,0 l/m 0 min 0 min 19 W/m 14,6 km/h (3 Bft) 91,49 %
16.06.2017 21:52 16,8 C 16,1 C 14,4 C 67 % 0 lf 1023,8 hPa 0,0 l/m 0 min 0 min 17 W/m 16,7 km/h (3 Bft) 94,55 %
16.06.2017 21:54 16,7 C 15,6 C 14,4 C 67 % 0 lf 1023,8 hPa 0,0 l/m 0 min 0 min 17 W/m 10,5 km/h (2 Bft) 95,74 %
16.06.2017 21:56 16,7 C 15,6 C 14,4 C 67 % 0 lf 1023,8 hPa 0,0 l/m 0 min 0 min 15 W/m 8,4 km/h (2 Bft) 93,62 %
16.06.2017 21:58 16,6 C 15,6 C 14,4 C 67 % 0 lf 1023,8 hPa 0,0 l/m 0 min 0 min 15 W/m 12,6 km/h (3 Bft) 93,62 %
16.06.2017 22:00 16,6 C 15,6 C 13,9 C 67 % 0 lf 1023,8 hPa 0,0 l/m 0 min 0 min 15 W/m 16,7 km/h (3 Bft) 91,49 %
16.06.2017 22:02 16,6 C 15,6 C 13,9 C 68 % 0 lf 1023,9 hPa 0,0 l/m 0 min 0 min 15 W/m 12,6 km/h (3 Bft) 89,13 %
16.06.2017 22:04 16,5 C 15,6 C 13,9 C 68 % 0 lf 1024,0 hPa 0,0 l/m 0 min 0 min 11 W/m 8,4 km/h (2 Bft) 91,49 %
16.06.2017 22:06 16,4 C 15,0 C 13,9 C 68 % 0 lf 1023,9 hPa 0,0 l/m 0 min 0 min 10 W/m 10,5 km/h (2 Bft) 91,49 %
16.06.2017 22:08 16,4 C 15,0 C 13,3 C 68 % 0 lf 1023,9 hPa 0,0 l/m 0 min 0 min 10 W/m 10,5 km/h (2 Bft) 91,49 %
16.06.2017 22:10 16,4 C 15,0 C 13,3 C 68 % 0 lf 1024,0 hPa 0,0 l/m 0 min 0 min 10 W/m 10,5 km/h (2 Bft) 95,74 %
16.06.2017 22:12 16,3 C 15,0 C 13,3 C 69 % 0 lf 1024,1 hPa 0,0 l/m 0 min 0 min 0 W/m 10,5 km/h (2 Bft) 93,62 %
16.06.2017 22:14 16,3 C 15,0 C 13,3 C 69 % 0 lf 1024,2 hPa 0,0 l/m 0 min 0 min 0 W/m 6,3 km/h (2 Bft) 91,30 %
16.06.2017 22:16 16,2 C 14,4 C 12,8 C 69 % 0 lf 1024,1 hPa 0,0 l/m 0 min 0 min 0 W/m 8,4 km/h (2 Bft) 93,62 %
16.06.2017 22:18 16,2 C 14,4 C 12,8 C 69 % 0 lf 1024,2 hPa 0,0 l/m 0 min 0 min 0 W/m 6,3 km/h (2 Bft) 91,49 %
16.06.2017 22:20 16,2 C 14,4 C 12,8 C 69 % 0 lf 1024,2 hPa 0,0 l/m 0 min 0 min 0 W/m 6,3 km/h (2 Bft) 93,62 %
16.06.2017 22:22 16,1 C 14,4 C 12,8 C 69 % 0 lf 1024,2 hPa 0,0 l/m 0 min 0 min 0 W/m 6,3 km/h (2 Bft) 95,74 %
16.06.2017 22:24 16,1 C 14,4 C 12,8 C 69 % 0 lf 1024,2 hPa 0,0 l/m 0 min 0 min 0 W/m 4,2 km/h (1 Bft) 95,74 %
16.06.2017 22:26 16,0 C 14,4 C 12,2 C 69 % 0 lf 1024,2 hPa 0,0 l/m 0 min 0 min 0 W/m 6,3 km/h (2 Bft) 93,48 %
16.06.2017 22:28 15,9 C 13,9 C 12,2 C 69 % 0 lf 1024,2 hPa 0,0 l/m 0 min 0 min 0 W/m 10,5 km/h (2 Bft) 95,74 %
16.06.2017 22:30 15,9 C 13,9 C 12,2 C 69 % 0 lf 1024,2 hPa 0,0 l/m 0 min 0 min 0 W/m 8,4 km/h (2 Bft) 95,74 %
16.06.2017 22:32 15,8 C 13,9 C 12,2 C 69 % 0 lf 1024,2 hPa 0,0 l/m 0 min 0 min 0 W/m 6,3 km/h (2 Bft) 93,62 %
16.06.2017 22:34 15,8 C 13,9 C 12,2 C 69 % 0 lf 1024,2 hPa 0,0 l/m 0 min 0 min 0 W/m 4,2 km/h (1 Bft) 97,87 %
16.06.2017 22:36 15,7 C 13,9 C 12,2 C 70 % 0 lf 1024,3 hPa 0,0 l/m 0 min 0 min 0 W/m 6,3 km/h (2 Bft) 95,74 %
16.06.2017 22:38 15,7 C 13,9 C 12,2 C 70 % 0 lf 1024,3 hPa 0,0 l/m 0 min 0 min 0 W/m 6,3 km/h (2 Bft) 100,00 %
16.06.2017 22:40 15,6 C 13,9 C 12,2 C 70 % 0 lf 1024,3 hPa 0,0 l/m 0 min 0 min 0 W/m 6,3 km/h (2 Bft) 95,74 %
16.06.2017 22:42 15,6 C 13,3 C 11,7 C 70 % 0 lf 1024,3 hPa 0,0 l/m 0 min 0 min 0 W/m 4,2 km/h (1 Bft) 97,87 %
16.06.2017 22:44 15,5 C 13,3 C 11,7 C 70 % 0 lf 1024,3 hPa 0,0 l/m 0 min 0 min 0 W/m 4,2 km/h (1 Bft) 100,00 %
16.06.2017 22:46 15,4 C 13,3 C 11,7 C 70 % 0 lf 1024,3 hPa 0,0 l/m 0 min 0 min 0 W/m 6,3 km/h (2 Bft) 100,00 %
16.06.2017 22:48 15,4 C 13,3 C 11,7 C 70 % 0 lf 1024,4 hPa 0,0 l/m 0 min 0 min 0 W/m 6,3 km/h (2 Bft) 100,00 %
16.06.2017 22:50 15,3 C 13,3 C 11,7 C 71 % 0 lf 1024,4 hPa 0,0 l/m 0 min 0 min 0 W/m 4,2 km/h (1 Bft) 97,87 %
16.06.2017 22:52 15,3 C 13,3 C 11,7 C 71 % 0 lf 1024,3 hPa 0,0 l/m 0 min 0 min 0 W/m 4,2 km/h (1 Bft) 91,49 %
16.06.2017 22:54 15,2 C 12,8 C 11,7 C 71 % 0 lf 1024,4 hPa 0,0 l/m 0 min 0 min 0 W/m 6,3 km/h (2 Bft) 97,87 %
16.06.2017 22:56 15,2 C 12,8 C 11,7 C 71 % 0 lf 1024,4 hPa 0,0 l/m 0 min 0 min 0 W/m 4,2 km/h (1 Bft) 97,87 %
16.06.2017 22:58 15,1 C 12,8 C 11,7 C 71 % 0 lf 1024,4 hPa 0,0 l/m 0 min 0 min 0 W/m 6,3 km/h (2 Bft) 100,00 %
16.06.2017 23:00 15,1 C 12,8 C 11,1 C 71 % 0 lf 1024,4 hPa 0,0 l/m 0 min 0 min 0 W/m 4,2 km/h (1 Bft) 100,00 %
16.06.2017 23:02 15,0 C 12,8 C 11,1 C 71 % 0 lf 1024,4 hPa 0,0 l/m 0 min 0 min 0 W/m 4,2 km/h (1 Bft) 97,87 %
16.06.2017 23:04 14,9 C 12,8 C 11,1 C 72 % 0 lf 1024,4 hPa 0,0 l/m 0 min 0 min 0 W/m 4,2 km/h (1 Bft) 100,00 %
16.06.2017 23:06 14,9 C 12,8 C 11,1 C 72 % 0 lf 1024,4 hPa 0,0 l/m 0 min 0 min 0 W/m 4,2 km/h (1 Bft) 100,00 %
16.06.2017 23:08 14,8 C 12,8 C 11,1 C 72 % 0 lf 1024,4 hPa 0,0 l/m 0 min 0 min 0 W/m 6,3 km/h (2 Bft) 100,00 %
16.06.2017 23:10 14,8 C 12,8 C 11,1 C 72 % 0 lf 1024,4 hPa 0,0 l/m 0 min 0 min 0 W/m 8,4 km/h (2 Bft) 100,00 %
16.06.2017 23:12 14,7 C 12,8 C 11,1 C 72 % 0 lf 1024,4 hPa 0,0 l/m 0 min 0 min 0 W/m 8,4 km/h (2 Bft) 100,00 %
16.06.2017 23:14 14,7 C 12,8 C 11,1 C 73 % 0 lf 1024,4 hPa 0,0 l/m 0 min 0 min 0 W/m 6,3 km/h (2 Bft) 100,00 %
16.06.2017 23:16 14,6 C 12,8 C 11,1 C 73 % 0 lf 1024,4 hPa 0,0 l/m 0 min 0 min 0 W/m 4,2 km/h (1 Bft) 100,00 %
16.06.2017 23:18 14,6 C 12,8 C 11,1 C 73 % 0 lf 1024,4 hPa 0,0 l/m 0 min 0 min 0 W/m 6,3 km/h (2 Bft) 100,00 %
16.06.2017 23:20 14,5 C 12,8 C 11,1 C 73 % 0 lf 1024,4 hPa 0,0 l/m 0 min 0 min 0 W/m 4,2 km/h (1 Bft) 100,00 %
16.06.2017 23:22 14,4 C 12,8 C 11,1 C 73 % 0 lf 1024,3 hPa 0,0 l/m 0 min 0 min 0 W/m 6,3 km/h (2 Bft) 100,00 %
16.06.2017 23:24 14,4 C 12,8 C 11,1 C 74 % 0 lf 1024,3 hPa 0,0 l/m 0 min 0 min 0 W/m 6,3 km/h (2 Bft) 95,65 %
16.06.2017 23:26 14,3 C 12,8 C 11,1 C 74 % 0 lf 1024,3 hPa 0,0 l/m 0 min 0 min 0 W/m 6,3 km/h (2 Bft) 100,00 %
16.06.2017 23:28 14,2 C 12,2 C 11,1 C 74 % 0 lf 1024,3 hPa 0,0 l/m 0 min 0 min 0 W/m 6,3 km/h (2 Bft) 100,00 %
16.06.2017 23:30 14,2 C 12,2 C 11,1 C 74 % 0 lf 1024,4 hPa 0,0 l/m 0 min 0 min 0 W/m 4,2 km/h (1 Bft) 100,00 %
16.06.2017 23:32 14,2 C 12,2 C 11,1 C 74 % 0 lf 1024,4 hPa 0,0 l/m 0 min 0 min 0 W/m 6,3 km/h (2 Bft) 97,87 %
16.06.2017 23:34 14,2 C 12,2 C 11,1 C 74 % 0 lf 1024,4 hPa 0,0 l/m 0 min 0 min 0 W/m 6,3 km/h (2 Bft) 100,00 %
16.06.2017 23:36 14,2 C 12,2 C 10,6 C 74 % 0 lf 1024,4 hPa 0,0 l/m 0 min 0 min 0 W/m 6,3 km/h (2 Bft) 97,83 %
16.06.2017 23:38 14,1 C 12,2 C 11,1 C 74 % 0 lf 1024,4 hPa 0,0 l/m 0 min 0 min 0 W/m 4,2 km/h (1 Bft) 100,00 %
16.06.2017 23:40 14,1 C 12,2 C 11,1 C 75 % 0 lf 1024,4 hPa 0,0 l/m 0 min 0 min 0 W/m 6,3 km/h (2 Bft) 100,00 %
16.06.2017 23:42 14,0 C 12,2 C 11,1 C 75 % 0 lf 1024,4 hPa 0,0 l/m 0 min 0 min 0 W/m 8,4 km/h (2 Bft) 97,87 %
16.06.2017 23:44 13,9 C 12,2 C 11,1 C 75 % 0 lf 1024,5 hPa 0,0 l/m 0 min 0 min 0 W/m 6,3 km/h (2 Bft) 100,00 %
16.06.2017 23:46 13,9 C 12,2 C 10,6 C 75 % 0 lf 1024,5 hPa 0,0 l/m 0 min 0 min 0 W/m 6,3 km/h (2 Bft) 100,00 %
16.06.2017 23:48 13,8 C 12,2 C 10,6 C 75 % 0 lf 1024,4 hPa 0,0 l/m 0 min 0 min 0 W/m 6,3 km/h (2 Bft) 100,00 %
16.06.2017 23:50 13,8 C 12,2 C 10,6 C 75 % 0 lf 1024,4 hPa 0,0 l/m 0 min 0 min 0 W/m 6,3 km/h (2 Bft) 97,87 %
16.06.2017 23:52 13,8 C 12,2 C 10,6 C 75 % 0 lf 1024,4 hPa 0,0 l/m 0 min 0 min 0 W/m 4,2 km/h (1 Bft) 97,87 %
16.06.2017 23:54 13,7 C 12,2 C 10,6 C 75 % 0 lf 1024,4 hPa 0,0 l/m 0 min 0 min 0 W/m 6,3 km/h (2 Bft) 100,00 %
16.06.2017 23:56 13,7 C 12,2 C 10,6 C 75 % 0 lf 1024,4 hPa 0,0 l/m 0 min 0 min 0 W/m 4,2 km/h (1 Bft) 97,87 %
16.06.2017 23:58 13,6 C 11,7 C 10,6 C 76 % 0 lf 1024,4 hPa 0,0 l/m 0 min 0 min 0 W/m 2,1 km/h (1 Bft) 97,87 %
_ Min-Zeit 06:04 23:58 23:36 17:16 00:00 00:14 - - - - 00:00 10:42
Minimum _ 13,3 C 11,7 C 10,6 C 59 % 0 lf 1014,2 hPa - - - - 0,0 km/h (0 Bft) 85,71 %
_ Max-Zeit 14:34 09:52 14:28 06:54 00:00 23:44 00:00 16:50 00:00 10:34 17:16 01:56
Maximum _ 21,1 C 30,0 C 27,2 C 88 % 0 lf 1024,5 hPa 0,0 l/m 5 min 0 min 962 W/m 43,9 km/h
W (6 Bft)
100,00 %
Durchschnitt _ 17,8 C 18,9 C 17,2 C 73 % 0 lf 1019,4 hPa #0,0 l/m #7:21 h #0 min. 257 W/m 18,2 km/h (3 Bft) 96,62 %
© 2017 W. Hausmann